Wetterdaten: Dienstag, 26.03.2019
Datum Zeit Temp. Aussen Temp. o. S. +5cm Feuchte Auss Luftdruck Regen Sonnenschein Regendauer Solar Windben Empfang
26.03.2019 00:00 6,3 C 5,6 C 5,0 C 85 % 1028,0 hPa 0,0 l/m 0 min 0 min 0 W/m 16,1 km/h (3 Bft) 97,87 %
26.03.2019 00:02 6,3 C 5,6 C 5,0 C 85 % 1028,0 hPa 0,0 l/m 0 min 0 min 0 W/m 12,9 km/h (3 Bft) 97,30 %
26.03.2019 00:04 6,3 C 5,6 C 5,0 C 85 % 1028,0 hPa 0,0 l/m 0 min 0 min 0 W/m 16,1 km/h (3 Bft) 97,87 %
26.03.2019 00:08 6,2 C 5,6 C 5,0 C 85 % 1027,9 hPa 0,0 l/m 0 min 0 min 0 W/m 19,3 km/h (3 Bft) 96,81 %
26.03.2019 00:10 6,2 C 5,6 C 5,0 C 85 % 1028,1 hPa 0,0 l/m 0 min 0 min 0 W/m 16,1 km/h (3 Bft) 93,62 %
26.03.2019 00:12 6,2 C 5,6 C 5,0 C 84 % 1028,1 hPa 0,0 l/m 0 min 0 min 0 W/m 12,9 km/h (3 Bft) 97,87 %
26.03.2019 00:14 6,2 C 5,6 C 5,0 C 84 % 1028,2 hPa 0,0 l/m 0 min 0 min 0 W/m 19,3 km/h (3 Bft) 97,83 %
26.03.2019 00:16 6,2 C 5,6 C 5,0 C 84 % 1028,1 hPa 0,0 l/m 0 min 0 min 0 W/m 12,9 km/h (3 Bft) 97,87 %
26.03.2019 00:18 6,2 C 5,6 C 5,0 C 84 % 1028,1 hPa 0,0 l/m 0 min 0 min 0 W/m 19,3 km/h (3 Bft) 97,87 %
26.03.2019 00:20 6,2 C 5,6 C 5,0 C 84 % 1028,1 hPa 0,0 l/m 0 min 0 min 0 W/m 12,9 km/h (3 Bft) 97,87 %
26.03.2019 00:22 6,2 C 5,6 C 5,0 C 84 % 1028,1 hPa 0,0 l/m 0 min 0 min 0 W/m 38,6 km/h (5 Bft) 100,00 %
26.03.2019 00:24 6,2 C 5,6 C 5,0 C 84 % 1028,1 hPa 0,0 l/m 0 min 0 min 0 W/m 12,9 km/h (3 Bft) 97,87 %
26.03.2019 00:26 6,2 C 5,6 C 5,0 C 84 % 1028,2 hPa 0,0 l/m 0 min 0 min 0 W/m 16,1 km/h (3 Bft) 91,30 %
26.03.2019 00:28 6,2 C 5,6 C 5,0 C 84 % 1028,2 hPa 0,0 l/m 0 min 0 min 0 W/m 16,1 km/h (3 Bft) 97,87 %
26.03.2019 00:30 6,2 C 5,6 C 5,0 C 84 % 1028,1 hPa 0,0 l/m 0 min 0 min 0 W/m 12,9 km/h (3 Bft) 97,87 %
26.03.2019 00:32 6,2 C 5,6 C 5,0 C 84 % 1028,1 hPa 0,0 l/m 0 min 0 min 0 W/m 16,1 km/h (3 Bft) 100,00 %
26.03.2019 00:34 6,2 C 5,6 C 5,0 C 84 % 1028,2 hPa 0,0 l/m 0 min 0 min 0 W/m 16,1 km/h (3 Bft) 95,74 %
26.03.2019 00:36 6,1 C 5,6 C 5,0 C 84 % 1028,2 hPa 0,0 l/m 0 min 0 min 0 W/m 16,1 km/h (3 Bft) 97,87 %
26.03.2019 00:38 6,1 C 5,6 C 5,0 C 84 % 1028,2 hPa 0,0 l/m 0 min 0 min 0 W/m 22,5 km/h (4 Bft) 97,87 %
26.03.2019 00:40 6,1 C 5,6 C 5,0 C 84 % 1028,2 hPa 0,0 l/m 0 min 0 min 0 W/m 12,9 km/h (3 Bft) 95,74 %
26.03.2019 00:42 6,1 C 5,6 C 5,0 C 84 % 1028,2 hPa 0,0 l/m 0 min 0 min 0 W/m 16,1 km/h (3 Bft) 95,74 %
26.03.2019 00:44 6,1 C 5,6 C 5,0 C 84 % 1028,2 hPa 0,0 l/m 0 min 0 min 0 W/m 9,7 km/h (2 Bft) 97,87 %
26.03.2019 00:46 6,1 C 5,6 C 5,0 C 83 % 1028,3 hPa 0,0 l/m 0 min 0 min 0 W/m 12,9 km/h (3 Bft) 97,87 %
26.03.2019 00:48 6,1 C 5,6 C 5,0 C 83 % 1028,3 hPa 0,0 l/m 0 min 0 min 0 W/m 9,7 km/h (2 Bft) 95,74 %
26.03.2019 00:50 6,1 C 5,6 C 5,0 C 83 % 1028,3 hPa 0,0 l/m 0 min 0 min 0 W/m 6,4 km/h (2 Bft) 95,65 %
26.03.2019 00:52 6,1 C 5,6 C 5,0 C 84 % 1028,3 hPa 0,0 l/m 0 min 0 min 0 W/m 12,9 km/h (3 Bft) 93,62 %
26.03.2019 00:54 6,1 C 5,6 C 5,0 C 84 % 1028,3 hPa 0,0 l/m 0 min 0 min 0 W/m 12,9 km/h (3 Bft) 95,74 %
26.03.2019 00:56 6,1 C 5,6 C 5,0 C 84 % 1028,3 hPa 0,0 l/m 0 min 0 min 0 W/m 22,5 km/h (4 Bft) 93,62 %
26.03.2019 00:58 6,1 C 5,6 C 5,0 C 84 % 1028,3 hPa 0,0 l/m 0 min 0 min 0 W/m 12,9 km/h (3 Bft) 95,74 %
26.03.2019 01:00 6,1 C 5,6 C 5,0 C 84 % 1028,4 hPa 0,0 l/m 0 min 0 min 0 W/m 12,9 km/h (3 Bft) 91,49 %
26.03.2019 01:02 6,1 C 5,6 C 5,0 C 84 % 1028,4 hPa 0,0 l/m 0 min 0 min 0 W/m 12,9 km/h (3 Bft) 93,62 %
26.03.2019 01:04 6,1 C 5,6 C 5,0 C 84 % 1028,3 hPa 0,0 l/m 0 min 0 min 0 W/m 19,3 km/h (3 Bft) 95,74 %
26.03.2019 01:06 6,1 C 5,6 C 5,0 C 84 % 1028,4 hPa 0,0 l/m 0 min 0 min 0 W/m 16,1 km/h (3 Bft) 95,74 %
26.03.2019 01:08 6,1 C 5,6 C 5,0 C 84 % 1028,3 hPa 0,0 l/m 0 min 0 min 0 W/m 16,1 km/h (3 Bft) 97,87 %
26.03.2019 01:10 6,1 C 5,6 C 5,0 C 84 % 1028,3 hPa 0,0 l/m 0 min 0 min 0 W/m 12,9 km/h (3 Bft) 95,74 %
26.03.2019 01:12 6,1 C 5,6 C 5,0 C 84 % 1028,3 hPa 0,0 l/m 0 min 0 min 0 W/m 12,9 km/h (3 Bft) 97,83 %
26.03.2019 01:14 6,1 C 5,6 C 5,0 C 83 % 1028,3 hPa 0,0 l/m 0 min 0 min 0 W/m 12,9 km/h (3 Bft) 97,87 %
26.03.2019 01:16 6,1 C 5,6 C 5,0 C 83 % 1028,4 hPa 0,0 l/m 0 min 0 min 0 W/m 16,1 km/h (3 Bft) 97,87 %
26.03.2019 01:18 6,0 C 5,6 C 5,0 C 83 % 1028,3 hPa 0,0 l/m 0 min 0 min 0 W/m 16,1 km/h (3 Bft) 95,74 %
26.03.2019 01:20 6,0 C 5,6 C 5,0 C 83 % 1028,4 hPa 0,0 l/m 0 min 0 min 0 W/m 16,1 km/h (3 Bft) 97,87 %
26.03.2019 01:22 6,0 C 5,6 C 5,0 C 83 % 1028,3 hPa 0,0 l/m 0 min 0 min 0 W/m 9,7 km/h (2 Bft) 97,87 %
26.03.2019 01:24 6,0 C 5,6 C 5,0 C 83 % 1028,3 hPa 0,0 l/m 0 min 0 min 0 W/m 9,7 km/h (2 Bft) 97,83 %
26.03.2019 01:26 6,0 C 5,6 C 5,0 C 83 % 1028,4 hPa 0,0 l/m 0 min 0 min 0 W/m 9,7 km/h (2 Bft) 95,74 %
26.03.2019 01:28 6,0 C 5,6 C 5,0 C 83 % 1028,3 hPa 0,0 l/m 0 min 0 min 0 W/m 9,7 km/h (2 Bft) 97,87 %
26.03.2019 01:30 6,0 C 5,6 C 5,0 C 83 % 1028,4 hPa 0,0 l/m 0 min 0 min 0 W/m 12,9 km/h (3 Bft) 95,74 %
26.03.2019 01:32 5,9 C 5,6 C 5,0 C 83 % 1028,4 hPa 0,0 l/m 0 min 0 min 0 W/m 12,9 km/h (3 Bft) 97,92 %
26.03.2019 01:34 5,9 C 5,6 C 5,0 C 83 % 1028,4 hPa 0,0 l/m 0 min 0 min 0 W/m 12,9 km/h (3 Bft) 97,87 %
26.03.2019 01:36 5,9 C 5,6 C 5,0 C 83 % 1028,4 hPa 0,0 l/m 0 min 0 min 0 W/m 12,9 km/h (3 Bft) 97,83 %
26.03.2019 01:38 5,9 C 5,6 C 5,0 C 83 % 1028,3 hPa 0,0 l/m 0 min 0 min 0 W/m 16,1 km/h (3 Bft) 97,87 %
26.03.2019 01:40 5,9 C 5,6 C 5,0 C 82 % 1028,3 hPa 0,0 l/m 0 min 0 min 0 W/m 16,1 km/h (3 Bft) 97,87 %
26.03.2019 01:42 5,9 C 5,6 C 5,0 C 82 % 1028,3 hPa 0,0 l/m 0 min 0 min 0 W/m 16,1 km/h (3 Bft) 97,87 %
26.03.2019 01:44 5,9 C 5,6 C 5,0 C 82 % 1028,3 hPa 0,0 l/m 0 min 0 min 0 W/m 16,1 km/h (3 Bft) 97,87 %
26.03.2019 01:46 5,9 C 5,6 C 5,0 C 82 % 1028,3 hPa 0,0 l/m 0 min 0 min 0 W/m 12,9 km/h (3 Bft) 97,87 %
26.03.2019 01:48 5,8 C 5,6 C 5,0 C 81 % 1028,3 hPa 0,0 l/m 0 min 0 min 0 W/m 12,9 km/h (3 Bft) 95,65 %
26.03.2019 01:50 5,8 C 5,6 C 5,0 C 81 % 1028,4 hPa 0,0 l/m 0 min 0 min 0 W/m 12,9 km/h (3 Bft) 91,49 %
26.03.2019 01:52 5,8 C 5,0 C 5,0 C 81 % 1028,4 hPa 0,0 l/m 0 min 0 min 0 W/m 12,9 km/h (3 Bft) 97,87 %
26.03.2019 01:54 5,8 C 5,6 C 5,0 C 81 % 1028,4 hPa 0,0 l/m 0 min 0 min 0 W/m 9,7 km/h (2 Bft) 100,00 %
26.03.2019 01:56 5,8 C 5,6 C 5,0 C 81 % 1028,4 hPa 0,0 l/m 0 min 0 min 0 W/m 12,9 km/h (3 Bft) 100,00 %
26.03.2019 01:58 5,8 C 5,6 C 4,4 C 81 % 1028,4 hPa 0,0 l/m 0 min 0 min 0 W/m 3,2 km/h (1 Bft) 97,87 %
26.03.2019 02:00 5,8 C 5,6 C 4,4 C 81 % 1028,4 hPa 0,0 l/m 0 min 0 min 0 W/m 12,9 km/h (3 Bft) 93,48 %
26.03.2019 02:02 5,8 C 5,6 C 4,4 C 81 % 1028,5 hPa 0,0 l/m 0 min 0 min 0 W/m 16,1 km/h (3 Bft) 100,00 %
26.03.2019 02:04 5,8 C 5,6 C 5,0 C 81 % 1028,4 hPa 0,0 l/m 0 min 0 min 0 W/m 12,9 km/h (3 Bft) 100,00 %
26.03.2019 02:06 5,8 C 5,6 C 5,0 C 81 % 1028,4 hPa 0,0 l/m 0 min 0 min 0 W/m 6,4 km/h (2 Bft) 95,74 %
26.03.2019 02:08 5,8 C 5,0 C 4,4 C 81 % 1028,3 hPa 0,0 l/m 0 min 0 min 0 W/m 9,7 km/h (2 Bft) 97,87 %
26.03.2019 02:10 5,8 C 5,0 C 4,4 C 81 % 1028,3 hPa 0,0 l/m 0 min 0 min 0 W/m 6,4 km/h (2 Bft) 95,65 %
26.03.2019 02:12 5,8 C 5,0 C 4,4 C 81 % 1028,3 hPa 0,0 l/m 0 min 0 min 0 W/m 9,7 km/h (2 Bft) 100,00 %
26.03.2019 02:14 5,8 C 5,0 C 5,0 C 81 % 1028,4 hPa 0,0 l/m 0 min 0 min 0 W/m 6,4 km/h (2 Bft) 100,00 %
26.03.2019 02:16 5,8 C 5,0 C 5,0 C 81 % 1028,4 hPa 0,0 l/m 0 min 0 min 0 W/m 9,7 km/h (2 Bft) 97,87 %
26.03.2019 02:18 5,8 C 5,0 C 5,0 C 81 % 1028,3 hPa 0,0 l/m 0 min 0 min 0 W/m 6,4 km/h (2 Bft) 97,87 %
26.03.2019 02:20 5,8 C 5,0 C 4,4 C 81 % 1028,4 hPa 0,0 l/m 0 min 0 min 0 W/m 3,2 km/h (1 Bft) 93,62 %
26.03.2019 02:22 5,8 C 5,0 C 4,4 C 81 % 1028,3 hPa 0,0 l/m 0 min 0 min 0 W/m 6,4 km/h (2 Bft) 97,83 %
26.03.2019 02:24 5,8 C 5,0 C 4,4 C 81 % 1028,3 hPa 0,0 l/m 0 min 0 min 0 W/m 3,2 km/h (1 Bft) 97,87 %
26.03.2019 02:26 5,8 C 5,0 C 4,4 C 82 % 1028,3 hPa 0,0 l/m 0 min 0 min 0 W/m 3,2 km/h (1 Bft) 97,87 %
26.03.2019 02:28 5,8 C 5,0 C 4,4 C 82 % 1028,4 hPa 0,0 l/m 0 min 0 min 0 W/m 3,2 km/h (1 Bft) 97,87 %
26.03.2019 02:30 5,8 C 5,0 C 4,4 C 82 % 1028,5 hPa 0,0 l/m 0 min 0 min 0 W/m 3,2 km/h (1 Bft) 97,87 %
26.03.2019 02:32 5,8 C 5,0 C 4,4 C 82 % 1028,4 hPa 0,0 l/m 0 min 0 min 0 W/m 12,9 km/h (3 Bft) 95,74 %
26.03.2019 02:34 5,8 C 5,0 C 4,4 C 82 % 1028,4 hPa 0,0 l/m 0 min 0 min 0 W/m 9,7 km/h (2 Bft) 97,83 %
26.03.2019 02:36 5,8 C 5,0 C 4,4 C 82 % 1028,5 hPa 0,0 l/m 0 min 0 min 0 W/m 9,7 km/h (2 Bft) 95,74 %
26.03.2019 02:38 5,8 C 5,0 C 4,4 C 82 % 1028,5 hPa 0,0 l/m 0 min 0 min 0 W/m 9,7 km/h (2 Bft) 97,87 %
26.03.2019 02:40 5,8 C 5,0 C 4,4 C 82 % 1028,5 hPa 0,0 l/m 0 min 0 min 0 W/m 9,7 km/h (2 Bft) 97,87 %
26.03.2019 02:42 5,8 C 5,0 C 4,4 C 82 % 1028,5 hPa 0,0 l/m 0 min 0 min 0 W/m 9,7 km/h (2 Bft) 97,87 %
26.03.2019 02:44 5,8 C 5,0 C 4,4 C 82 % 1028,5 hPa 0,0 l/m 0 min 0 min 0 W/m 9,7 km/h (2 Bft) 97,87 %
26.03.2019 02:46 5,8 C 5,0 C 4,4 C 82 % 1028,5 hPa 0,0 l/m 0 min 0 min 0 W/m 12,9 km/h (3 Bft) 95,65 %
26.03.2019 02:48 5,8 C 5,0 C 4,4 C 82 % 1028,5 hPa 0,0 l/m 0 min 0 min 0 W/m 9,7 km/h (2 Bft) 97,87 %
26.03.2019 02:50 5,7 C 5,0 C 4,4 C 82 % 1028,4 hPa 0,0 l/m 0 min 0 min 0 W/m 9,7 km/h (2 Bft) 97,87 %
26.03.2019 02:52 5,8 C 5,0 C 4,4 C 82 % 1028,4 hPa 0,0 l/m 0 min 0 min 0 W/m 9,7 km/h (2 Bft) 95,74 %
26.03.2019 02:54 5,8 C 5,0 C 4,4 C 82 % 1028,5 hPa 0,0 l/m 0 min 0 min 0 W/m 9,7 km/h (2 Bft) 97,87 %
26.03.2019 02:56 5,7 C 5,0 C 4,4 C 82 % 1028,4 hPa 0,0 l/m 0 min 0 min 0 W/m 6,4 km/h (2 Bft) 97,87 %
26.03.2019 02:58 5,8 C 5,0 C 4,4 C 82 % 1028,3 hPa 0,0 l/m 0 min 0 min 0 W/m 3,2 km/h (1 Bft) 97,83 %
26.03.2019 03:00 5,8 C 5,0 C 4,4 C 82 % 1028,3 hPa 0,0 l/m 0 min 0 min 0 W/m 3,2 km/h (1 Bft) 100,00 %
26.03.2019 03:02 5,7 C 5,0 C 4,4 C 82 % 1028,3 hPa 0,0 l/m 0 min 0 min 0 W/m 6,4 km/h (2 Bft) 100,00 %
26.03.2019 03:04 5,7 C 5,0 C 4,4 C 83 % 1028,3 hPa 0,0 l/m 0 min 0 min 0 W/m 6,4 km/h (2 Bft) 100,00 %
26.03.2019 03:06 5,7 C 5,0 C 4,4 C 83 % 1028,3 hPa 0,0 l/m 0 min 0 min 0 W/m 6,4 km/h (2 Bft) 95,74 %
26.03.2019 03:08 5,7 C 5,0 C 4,4 C 83 % 1028,4 hPa 0,0 l/m 0 min 0 min 0 W/m 6,4 km/h (2 Bft) 97,87 %
26.03.2019 03:10 5,7 C 5,0 C 4,4 C 82 % 1028,4 hPa 0,0 l/m 0 min 0 min 0 W/m 9,7 km/h (2 Bft) 97,83 %
26.03.2019 03:12 5,7 C 5,0 C 4,4 C 82 % 1028,4 hPa 0,0 l/m 0 min 0 min 0 W/m 9,7 km/h (2 Bft) 97,87 %
26.03.2019 03:14 5,7 C 5,0 C 4,4 C 82 % 1028,5 hPa 0,0 l/m 0 min 0 min 0 W/m 6,4 km/h (2 Bft) 97,87 %
26.03.2019 03:16 5,7 C 5,0 C 4,4 C 83 % 1028,5 hPa 0,0 l/m 0 min 0 min 0 W/m 6,4 km/h (2 Bft) 97,87 %
26.03.2019 03:18 5,7 C 5,0 C 4,4 C 83 % 1028,5 hPa 0,0 l/m 0 min 0 min 0 W/m 9,7 km/h (2 Bft) 95,74 %
26.03.2019 03:20 5,7 C 5,0 C 4,4 C 83 % 1028,5 hPa 0,0 l/m 0 min 0 min 0 W/m 12,9 km/h (3 Bft) 97,87 %
26.03.2019 03:22 5,7 C 5,0 C 4,4 C 83 % 1028,5 hPa 0,0 l/m 0 min 0 min 0 W/m 16,1 km/h (3 Bft) 97,83 %
26.03.2019 03:24 5,7 C 5,0 C 4,4 C 83 % 1028,6 hPa 0,0 l/m 0 min 0 min 0 W/m 9,7 km/h (2 Bft) 97,87 %
26.03.2019 03:26 5,7 C 5,0 C 4,4 C 83 % 1028,5 hPa 0,0 l/m 0 min 0 min 0 W/m 9,7 km/h (2 Bft) 97,87 %
26.03.2019 03:28 5,7 C 5,0 C 4,4 C 83 % 1028,5 hPa 0,0 l/m 0 min 0 min 0 W/m 9,7 km/h (2 Bft) 95,74 %
26.03.2019 03:30 5,7 C 5,0 C 4,4 C 83 % 1028,5 hPa 0,0 l/m 0 min 0 min 0 W/m 9,7 km/h (2 Bft) 97,87 %
26.03.2019 03:32 5,7 C 5,0 C 4,4 C 83 % 1028,6 hPa 0,0 l/m 0 min 0 min 0 W/m 16,1 km/h (3 Bft) 95,65 %
26.03.2019 03:34 5,7 C 5,0 C 4,4 C 83 % 1028,5 hPa 0,0 l/m 0 min 0 min 0 W/m 12,9 km/h (3 Bft) 97,87 %
26.03.2019 03:36 5,7 C 5,0 C 4,4 C 83 % 1028,4 hPa 0,0 l/m 0 min 0 min 0 W/m 9,7 km/h (2 Bft) 93,62 %
26.03.2019 03:38 5,7 C 5,0 C 4,4 C 83 % 1028,4 hPa 0,0 l/m 0 min 0 min 0 W/m 6,4 km/h (2 Bft) 97,87 %
26.03.2019 03:40 5,7 C 5,0 C 4,4 C 83 % 1028,6 hPa 0,0 l/m 0 min 0 min 0 W/m 19,3 km/h (3 Bft) 95,74 %
26.03.2019 03:42 5,6 C 5,0 C 4,4 C 83 % 1028,5 hPa 0,0 l/m 0 min 0 min 0 W/m 22,5 km/h (4 Bft) 97,87 %
26.03.2019 03:44 5,6 C 5,0 C 4,4 C 83 % 1028,4 hPa 0,0 l/m 0 min 0 min 0 W/m 12,9 km/h (3 Bft) 97,83 %
26.03.2019 03:46 5,6 C 5,0 C 4,4 C 82 % 1028,4 hPa 0,0 l/m 0 min 0 min 0 W/m 9,7 km/h (2 Bft) 97,87 %
26.03.2019 03:48 5,6 C 5,0 C 4,4 C 82 % 1028,4 hPa 0,0 l/m 0 min 0 min 0 W/m 6,4 km/h (2 Bft) 97,87 %
26.03.2019 03:50 5,6 C 5,0 C 4,4 C 82 % 1028,3 hPa 0,0 l/m 0 min 0 min 0 W/m 16,1 km/h (3 Bft) 97,87 %
26.03.2019 03:52 5,6 C 5,0 C 4,4 C 82 % 1028,4 hPa 0,0 l/m 0 min 0 min 0 W/m 16,1 km/h (3 Bft) 100,00 %
26.03.2019 03:54 5,6 C 5,0 C 4,4 C 82 % 1028,3 hPa 0,0 l/m 0 min 0 min 0 W/m 16,1 km/h (3 Bft) 100,00 %
26.03.2019 03:56 5,6 C 5,0 C 4,4 C 81 % 1028,3 hPa 0,0 l/m 0 min 0 min 0 W/m 12,9 km/h (3 Bft) 100,00 %
26.03.2019 03:58 5,6 C 5,0 C 4,4 C 81 % 1028,4 hPa 0,0 l/m 0 min 0 min 0 W/m 12,9 km/h (3 Bft) 100,00 %
26.03.2019 04:00 5,6 C 5,0 C 4,4 C 81 % 1028,5 hPa 0,0 l/m 0 min 0 min 0 W/m 9,7 km/h (2 Bft) 100,00 %
26.03.2019 04:05 5,6 C 5,0 C 4,4 C 82 % 1028,4 hPa 0,0 l/m 0 min 0 min 0 W/m 16,1 km/h (3 Bft) 98,53 %
26.03.2019 04:06 5,6 C 5,0 C 4,4 C 82 % 1028,4 hPa 0,0 l/m 0 min 0 min 0 W/m 9,7 km/h (2 Bft) 100,00 %
26.03.2019 04:08 5,6 C 5,0 C 4,4 C 81 % 1028,4 hPa 0,0 l/m 0 min 0 min 0 W/m 12,9 km/h (3 Bft) 97,83 %
26.03.2019 04:10 5,6 C 5,0 C 4,4 C 81 % 1028,4 hPa 0,0 l/m 0 min 0 min 0 W/m 9,7 km/h (2 Bft) 100,00 %
26.03.2019 04:12 5,6 C 5,0 C 4,4 C 81 % 1028,4 hPa 0,0 l/m 0 min 0 min 0 W/m 12,9 km/h (3 Bft) 97,87 %
26.03.2019 04:14 5,6 C 5,0 C 4,4 C 81 % 1028,4 hPa 0,0 l/m 0 min 0 min 0 W/m 9,7 km/h (2 Bft) 97,87 %
26.03.2019 04:16 5,6 C 5,0 C 4,4 C 81 % 1028,5 hPa 0,0 l/m 0 min 0 min 0 W/m 12,9 km/h (3 Bft) 97,87 %
26.03.2019 04:18 5,6 C 5,0 C 4,4 C 81 % 1028,4 hPa 0,0 l/m 0 min 0 min 0 W/m 9,7 km/h (2 Bft) 100,00 %
26.03.2019 04:20 5,6 C 5,0 C 4,4 C 81 % 1028,4 hPa 0,0 l/m 0 min 0 min 0 W/m 6,4 km/h (2 Bft) 100,00 %
26.03.2019 04:22 5,6 C 5,0 C 4,4 C 81 % 1028,4 hPa 0,0 l/m 0 min 0 min 0 W/m 12,9 km/h (3 Bft) 100,00 %
26.03.2019 04:24 5,6 C 5,0 C 4,4 C 81 % 1028,4 hPa 0,0 l/m 0 min 0 min 0 W/m 12,9 km/h (3 Bft) 100,00 %
26.03.2019 04:26 5,6 C 5,0 C 4,4 C 81 % 1028,4 hPa 0,0 l/m 0 min 0 min 0 W/m 12,9 km/h (3 Bft) 100,00 %
26.03.2019 04:28 5,6 C 5,0 C 4,4 C 81 % 1028,4 hPa 0,0 l/m 0 min 0 min 0 W/m 6,4 km/h (2 Bft) 97,87 %
26.03.2019 04:30 5,5 C 5,0 C 4,4 C 81 % 1028,5 hPa 0,0 l/m 0 min 0 min 0 W/m 3,2 km/h (1 Bft) 97,87 %
26.03.2019 04:32 5,5 C 5,0 C 4,4 C 81 % 1028,5 hPa 0,0 l/m 0 min 0 min 0 W/m 6,4 km/h (2 Bft) 97,83 %
26.03.2019 04:34 5,5 C 5,0 C 4,4 C 81 % 1028,5 hPa 0,0 l/m 0 min 0 min 0 W/m 3,2 km/h (1 Bft) 97,87 %
26.03.2019 04:36 5,5 C 5,0 C 4,4 C 81 % 1028,5 hPa 0,0 l/m 0 min 0 min 0 W/m 3,2 km/h (1 Bft) 97,87 %
26.03.2019 04:38 5,5 C 5,0 C 4,4 C 81 % 1028,5 hPa 0,0 l/m 0 min 0 min 0 W/m 9,7 km/h (2 Bft) 97,87 %
26.03.2019 04:40 5,5 C 5,0 C 4,4 C 81 % 1028,5 hPa 0,0 l/m 0 min 0 min 0 W/m 12,9 km/h (3 Bft) 97,87 %
26.03.2019 04:42 5,5 C 5,0 C 4,4 C 81 % 1028,6 hPa 0,0 l/m 0 min 0 min 0 W/m 19,3 km/h (3 Bft) 97,83 %
26.03.2019 04:44 5,5 C 5,0 C 4,4 C 81 % 1028,6 hPa 0,0 l/m 0 min 0 min 0 W/m 9,7 km/h (2 Bft) 93,62 %
26.03.2019 04:46 5,5 C 5,0 C 4,4 C 81 % 1028,6 hPa 0,0 l/m 0 min 0 min 0 W/m 16,1 km/h (3 Bft) 97,87 %
26.03.2019 04:48 5,5 C 5,0 C 4,4 C 81 % 1028,6 hPa 0,0 l/m 0 min 0 min 0 W/m 12,9 km/h (3 Bft) 97,87 %
26.03.2019 04:50 5,5 C 5,0 C 4,4 C 81 % 1028,5 hPa 0,0 l/m 0 min 0 min 0 W/m 25,7 km/h (4 Bft) 95,74 %
26.03.2019 04:52 5,5 C 5,0 C 4,4 C 81 % 1028,5 hPa 0,0 l/m 0 min 0 min 0 W/m 12,9 km/h (3 Bft) 97,87 %
26.03.2019 04:54 5,5 C 5,0 C 4,4 C 81 % 1028,5 hPa 0,0 l/m 0 min 0 min 0 W/m 9,7 km/h (2 Bft) 95,74 %
26.03.2019 04:56 5,5 C 5,0 C 4,4 C 81 % 1028,5 hPa 0,0 l/m 0 min 0 min 0 W/m 6,4 km/h (2 Bft) 95,65 %
26.03.2019 04:58 5,5 C 5,0 C 4,4 C 81 % 1028,5 hPa 0,0 l/m 0 min 0 min 0 W/m 6,4 km/h (2 Bft) 95,74 %
26.03.2019 05:00 5,6 C 5,0 C 4,4 C 81 % 1028,5 hPa 0,0 l/m 0 min 0 min 0 W/m 9,7 km/h (2 Bft) 95,74 %
26.03.2019 05:02 5,6 C 5,0 C 4,4 C 81 % 1028,6 hPa 0,0 l/m 0 min 0 min 0 W/m 6,4 km/h (2 Bft) 95,74 %
26.03.2019 05:04 5,6 C 5,0 C 4,4 C 81 % 1028,6 hPa 0,0 l/m 0 min 0 min 0 W/m 6,4 km/h (2 Bft) 95,74 %
26.03.2019 05:05 5,5 C 5,0 C 4,4 C 81 % 1028,6 hPa 0,0 l/m 0 min 0 min 0 W/m 6,4 km/h (2 Bft) 98,25 %
26.03.2019 05:10 5,6 C 5,0 C 4,4 C 82 % 1028,6 hPa 0,0 l/m 0 min 0 min 0 W/m 9,7 km/h (2 Bft) 98,25 %
26.03.2019 05:12 5,6 C 5,0 C 4,4 C 82 % 1028,5 hPa 0,0 l/m 0 min 0 min 0 W/m 6,4 km/h (2 Bft) 94,12 %
26.03.2019 05:14 5,6 C 5,0 C 4,4 C 82 % 1028,6 hPa 0,0 l/m 0 min 0 min 0 W/m 6,4 km/h (2 Bft) 97,37 %
26.03.2019 05:16 5,6 C 5,0 C 4,4 C 82 % 1028,6 hPa 0,0 l/m 0 min 0 min 0 W/m 6,4 km/h (2 Bft) 100,00 %
26.03.2019 05:18 5,6 C 5,0 C 4,4 C 82 % 1028,7 hPa 0,0 l/m 0 min 0 min 0 W/m 9,7 km/h (2 Bft) 100,00 %
26.03.2019 05:20 5,6 C 5,0 C 4,4 C 82 % 1028,7 hPa 0,0 l/m 0 min 0 min 0 W/m 9,7 km/h (2 Bft) 97,96 %
26.03.2019 05:22 5,5 C 5,0 C 4,4 C 82 % 1028,7 hPa 0,0 l/m 0 min 0 min 0 W/m 6,4 km/h (2 Bft) 95,74 %
26.03.2019 05:24 5,5 C 5,0 C 4,4 C 83 % 1028,6 hPa 0,0 l/m 0 min 0 min 0 W/m 3,2 km/h (1 Bft) 94,34 %
26.03.2019 05:26 5,5 C 5,0 C 4,4 C 83 % 1028,5 hPa 0,0 l/m 0 min 0 min 0 W/m 3,2 km/h (1 Bft) 95,35 %
26.03.2019 05:28 5,5 C 5,0 C 4,4 C 83 % 1028,6 hPa 0,0 l/m 0 min 0 min 0 W/m 6,4 km/h (2 Bft) 95,65 %
26.03.2019 05:30 5,5 C 5,0 C 4,4 C 83 % 1028,6 hPa 0,0 l/m 0 min 0 min 0 W/m 6,4 km/h (2 Bft) 97,87 %
26.03.2019 05:32 5,5 C 4,4 C 4,4 C 83 % 1028,6 hPa 0,0 l/m 0 min 0 min 0 W/m 3,2 km/h (1 Bft) 97,87 %
26.03.2019 05:34 5,5 C 4,4 C 4,4 C 84 % 1028,6 hPa 0,0 l/m 0 min 0 min 0 W/m 3,2 km/h (1 Bft) 94,44 %
26.03.2019 05:36 5,5 C 4,4 C 4,4 C 84 % 1028,5 hPa 0,0 l/m 0 min 0 min 0 W/m 6,4 km/h (2 Bft) 97,87 %
26.03.2019 05:38 5,5 C 4,4 C 4,4 C 84 % 1028,5 hPa 0,0 l/m 0 min 0 min 0 W/m 3,2 km/h (1 Bft) 100,00 %
26.03.2019 05:40 5,5 C 4,4 C 4,4 C 84 % 1028,5 hPa 0,0 l/m 0 min 0 min 0 W/m 3,2 km/h (1 Bft) 100,00 %
26.03.2019 05:42 5,5 C 4,4 C 4,4 C 84 % 1028,6 hPa 0,0 l/m 0 min 0 min 0 W/m 6,4 km/h (2 Bft) 100,00 %
26.03.2019 05:44 5,4 C 4,4 C 4,4 C 84 % 1028,6 hPa 0,0 l/m 0 min 0 min 0 W/m 9,7 km/h (2 Bft) 97,37 %
26.03.2019 05:46 5,4 C 4,4 C 4,4 C 84 % 1028,5 hPa 0,0 l/m 0 min 0 min 0 W/m 6,4 km/h (2 Bft) 100,00 %
26.03.2019 05:48 5,4 C 4,4 C 4,4 C 84 % 1028,5 hPa 0,0 l/m 0 min 0 min 0 W/m 6,4 km/h (2 Bft) 97,92 %
26.03.2019 05:50 5,4 C 4,4 C 4,4 C 85 % 1028,5 hPa 0,0 l/m 0 min 0 min 0 W/m 6,4 km/h (2 Bft) 97,87 %
26.03.2019 05:52 5,4 C 4,4 C 4,4 C 85 % 1028,5 hPa 0,0 l/m 0 min 0 min 0 W/m 9,7 km/h (2 Bft) 96,30 %
26.03.2019 05:54 5,4 C 4,4 C 4,4 C 85 % 1028,5 hPa 0,0 l/m 0 min 0 min 0 W/m 9,7 km/h (2 Bft) 97,37 %
26.03.2019 05:56 5,4 C 4,4 C 4,4 C 85 % 1028,5 hPa 0,0 l/m 0 min 0 min 0 W/m 6,4 km/h (2 Bft) 93,62 %
26.03.2019 05:58 5,4 C 4,4 C 4,4 C 85 % 1028,5 hPa 0,0 l/m 0 min 0 min 0 W/m 6,4 km/h (2 Bft) 97,87 %
26.03.2019 06:00 5,4 C 4,4 C 4,4 C 85 % 1028,6 hPa 0,0 l/m 0 min 0 min 0 W/m 9,7 km/h (2 Bft) 97,92 %
26.03.2019 06:02 5,4 C 4,4 C 4,4 C 85 % 1028,6 hPa 0,0 l/m 0 min 0 min 0 W/m 9,7 km/h (2 Bft) 97,83 %
26.03.2019 06:04 5,4 C 4,4 C 4,4 C 85 % 1028,6 hPa 0,0 l/m 0 min 0 min 0 W/m 6,4 km/h (2 Bft) 97,87 %
26.03.2019 06:08 5,4 C 4,4 C 4,4 C 86 % 1028,5 hPa 0,0 l/m 0 min 0 min 0 W/m 9,7 km/h (2 Bft) 98,04 %
26.03.2019 06:10 5,3 C 4,4 C 4,4 C 86 % 1028,5 hPa 0,0 l/m 0 min 0 min 0 W/m 9,7 km/h (2 Bft) 97,37 %
26.03.2019 06:12 5,3 C 4,4 C 4,4 C 86 % 1028,5 hPa 0,0 l/m 0 min 0 min 0 W/m 6,4 km/h (2 Bft) 95,83 %
26.03.2019 06:14 5,3 C 4,4 C 4,4 C 86 % 1028,5 hPa 0,0 l/m 0 min 0 min 0 W/m 6,4 km/h (2 Bft) 97,83 %
26.03.2019 06:16 5,3 C 4,4 C 4,4 C 86 % 1028,5 hPa 0,0 l/m 0 min 0 min 0 W/m 9,7 km/h (2 Bft) 97,87 %
26.03.2019 06:18 5,3 C 4,4 C 4,4 C 86 % 1028,5 hPa 0,0 l/m 0 min 0 min 0 W/m 6,4 km/h (2 Bft) 97,96 %
26.03.2019 06:20 5,3 C 4,4 C 4,4 C 86 % 1028,5 hPa 0,0 l/m 0 min 0 min 0 W/m 6,4 km/h (2 Bft) 97,87 %
26.03.2019 06:22 5,3 C 4,4 C 4,4 C 86 % 1028,6 hPa 0,0 l/m 0 min 0 min 0 W/m 12,9 km/h (3 Bft) 97,73 %
26.03.2019 06:24 5,2 C 4,4 C 4,4 C 85 % 1028,6 hPa 0,0 l/m 0 min 0 min 0 W/m 9,7 km/h (2 Bft) 97,83 %
26.03.2019 06:26 5,2 C 4,4 C 4,4 C 85 % 1028,5 hPa 0,0 l/m 0 min 0 min 0 W/m 12,9 km/h (3 Bft) 98,00 %
26.03.2019 06:28 5,2 C 4,4 C 4,4 C 85 % 1028,5 hPa 0,0 l/m 0 min 0 min 0 W/m 12,9 km/h (3 Bft) 96,00 %
26.03.2019 06:30 5,2 C 4,4 C 4,4 C 85 % 1028,5 hPa 0,0 l/m 0 min 0 min 0 W/m 16,1 km/h (3 Bft) 97,87 %
26.03.2019 06:32 5,2 C 4,4 C 4,4 C 85 % 1028,4 hPa 0,0 l/m 0 min 0 min 5 W/m 9,7 km/h (2 Bft) 95,74 %
26.03.2019 06:34 5,2 C 5,0 C 4,4 C 84 % 1028,5 hPa 0,0 l/m 0 min 0 min 5 W/m 16,1 km/h (3 Bft) 97,87 %
26.03.2019 06:36 5,2 C 5,0 C 4,4 C 84 % 1028,5 hPa 0,0 l/m 0 min 0 min 5 W/m 9,7 km/h (2 Bft) 100,00 %
26.03.2019 06:38 5,2 C 5,0 C 4,4 C 84 % 1028,5 hPa 0,0 l/m 0 min 0 min 7 W/m 6,4 km/h (2 Bft) 100,00 %
26.03.2019 06:40 5,2 C 5,0 C 4,4 C 84 % 1028,5 hPa 0,0 l/m 0 min 0 min 7 W/m 6,4 km/h (2 Bft) 100,00 %
26.03.2019 06:42 5,2 C 5,0 C 4,4 C 84 % 1028,6 hPa 0,0 l/m 0 min 0 min 7 W/m 6,4 km/h (2 Bft) 100,00 %
26.03.2019 06:44 5,2 C 5,0 C 4,4 C 84 % 1028,7 hPa 0,0 l/m 0 min 0 min 7 W/m 3,2 km/h (1 Bft) 100,00 %
26.03.2019 06:46 5,2 C 5,0 C 4,4 C 84 % 1028,7 hPa 0,0 l/m 0 min 0 min 7 W/m 3,2 km/h (1 Bft) 100,00 %
26.03.2019 06:48 5,2 C 4,4 C 4,4 C 84 % 1028,8 hPa 0,0 l/m 0 min 0 min 8 W/m 3,2 km/h (1 Bft) 100,00 %
26.03.2019 06:50 5,2 C 4,4 C 4,4 C 84 % 1028,8 hPa 0,0 l/m 0 min 0 min 9 W/m 3,2 km/h (1 Bft) 98,11 %
26.03.2019 06:52 5,2 C 4,4 C 4,4 C 84 % 1028,8 hPa 0,0 l/m 0 min 0 min 8 W/m 6,4 km/h (2 Bft) 100,00 %
26.03.2019 06:54 5,2 C 4,4 C 4,4 C 84 % 1028,8 hPa 0,0 l/m 0 min 0 min 11 W/m 0,0 km/h (0 Bft) 100,00 %
26.03.2019 06:56 5,2 C 4,4 C 4,4 C 84 % 1028,8 hPa 0,0 l/m 0 min 0 min 12 W/m 3,2 km/h (1 Bft) 100,00 %
26.03.2019 06:58 5,2 C 5,0 C 4,4 C 85 % 1028,8 hPa 0,0 l/m 0 min 0 min 16 W/m 0,0 km/h (0 Bft) 100,00 %
26.03.2019 07:00 5,2 C 5,0 C 4,4 C 85 % 1028,9 hPa 0,0 l/m 0 min 0 min 18 W/m 3,2 km/h (1 Bft) 100,00 %
26.03.2019 07:02 5,2 C 5,0 C 4,4 C 85 % 1028,9 hPa 0,0 l/m 0 min 0 min 18 W/m 3,2 km/h (1 Bft) 97,87 %
26.03.2019 07:04 5,2 C 5,0 C 4,4 C 85 % 1028,9 hPa 0,0 l/m 0 min 0 min 19 W/m 3,2 km/h (1 Bft) 100,00 %
26.03.2019 07:06 5,3 C 5,0 C 4,4 C 85 % 1028,9 hPa 0,0 l/m 0 min 0 min 20 W/m 3,2 km/h (1 Bft) 100,00 %
26.03.2019 07:08 5,3 C 5,0 C 4,4 C 85 % 1028,8 hPa 0,0 l/m 0 min 0 min 24 W/m 6,4 km/h (2 Bft) 100,00 %
26.03.2019 07:10 5,3 C 5,0 C 4,4 C 85 % 1028,8 hPa 0,0 l/m 0 min 0 min 26 W/m 6,4 km/h (2 Bft) 100,00 %
26.03.2019 07:12 5,3 C 5,0 C 4,4 C 85 % 1028,9 hPa 0,0 l/m 0 min 0 min 30 W/m 9,7 km/h (2 Bft) 97,87 %
26.03.2019 07:14 5,3 C 5,0 C 4,4 C 85 % 1029,0 hPa 0,0 l/m 0 min 0 min 30 W/m 6,4 km/h (2 Bft) 98,18 %
26.03.2019 07:16 5,3 C 5,0 C 4,4 C 85 % 1028,9 hPa 0,0 l/m 0 min 0 min 32 W/m 0,0 km/h (0 Bft) 100,00 %
26.03.2019 07:18 5,3 C 5,0 C 4,4 C 85 % 1028,9 hPa 0,0 l/m 0 min 0 min 33 W/m 3,2 km/h (1 Bft) 100,00 %
26.03.2019 07:20 5,3 C 5,0 C 4,4 C 85 % 1029,0 hPa 0,0 l/m 0 min 0 min 35 W/m 3,2 km/h (1 Bft) 97,87 %
26.03.2019 07:22 5,3 C 5,0 C 5,0 C 86 % 1029,0 hPa 0,0 l/m 0 min 0 min 38 W/m 3,2 km/h (1 Bft) 96,30 %
26.03.2019 07:24 5,3 C 5,0 C 5,0 C 86 % 1029,1 hPa 0,0 l/m 0 min 0 min 40 W/m 3,2 km/h (1 Bft) 98,00 %
26.03.2019 07:26 5,3 C 5,6 C 5,0 C 86 % 1029,1 hPa 0,0 l/m 0 min 0 min 40 W/m 6,4 km/h (2 Bft) 100,00 %
26.03.2019 07:28 5,4 C 5,6 C 5,0 C 86 % 1029,1 hPa 0,0 l/m 0 min 0 min 39 W/m 6,4 km/h (2 Bft) 97,87 %
26.03.2019 07:30 5,4 C 5,6 C 5,0 C 86 % 1029,1 hPa 0,0 l/m 0 min 0 min 39 W/m 6,4 km/h (2 Bft) 97,87 %
26.03.2019 07:32 5,4 C 5,6 C 5,0 C 86 % 1029,1 hPa 0,0 l/m 0 min 0 min 40 W/m 6,4 km/h (2 Bft) 97,87 %
26.03.2019 07:34 5,4 C 5,6 C 5,0 C 86 % 1029,1 hPa 0,0 l/m 0 min 0 min 40 W/m 3,2 km/h (1 Bft) 97,14 %
26.03.2019 07:36 5,4 C 5,6 C 5,0 C 86 % 1029,2 hPa 0,0 l/m 0 min 0 min 40 W/m 6,4 km/h (2 Bft) 98,15 %
26.03.2019 07:38 5,4 C 5,6 C 5,0 C 86 % 1029,2 hPa 0,0 l/m 0 min 0 min 40 W/m 3,2 km/h (1 Bft) 97,87 %
26.03.2019 07:40 5,4 C 5,6 C 5,0 C 86 % 1029,2 hPa 0,0 l/m 0 min 0 min 40 W/m 9,7 km/h (2 Bft) 95,74 %
26.03.2019 07:42 5,4 C 5,6 C 5,0 C 86 % 1029,2 hPa 0,0 l/m 0 min 0 min 41 W/m 6,4 km/h (2 Bft) 94,00 %
26.03.2019 07:44 5,4 C 5,6 C 5,0 C 86 % 1029,3 hPa 0,0 l/m 0 min 0 min 47 W/m 6,4 km/h (2 Bft) 97,92 %
26.03.2019 07:46 5,4 C 5,6 C 5,0 C 86 % 1029,2 hPa 0,0 l/m 0 min 0 min 45 W/m 9,7 km/h (2 Bft) 95,65 %
26.03.2019 07:48 5,4 C 5,6 C 5,0 C 86 % 1029,2 hPa 0,0 l/m 0 min 0 min 43 W/m 9,7 km/h (2 Bft) 97,87 %
26.03.2019 07:50 5,4 C 5,6 C 5,0 C 86 % 1029,3 hPa 0,0 l/m 0 min 0 min 41 W/m 12,9 km/h (3 Bft) 97,14 %
26.03.2019 07:52 5,4 C 5,6 C 5,0 C 85 % 1029,3 hPa 0,0 l/m 0 min 0 min 39 W/m 16,1 km/h (3 Bft) 97,87 %
26.03.2019 07:54 5,4 C 5,6 C 5,0 C 85 % 1029,3 hPa 0,0 l/m 0 min 0 min 42 W/m 16,1 km/h (3 Bft) 94,55 %
26.03.2019 07:56 5,5 C 5,6 C 5,0 C 84 % 1029,3 hPa 0,0 l/m 0 min 0 min 42 W/m 12,9 km/h (3 Bft) 98,04 %
26.03.2019 07:58 5,5 C 5,6 C 5,0 C 84 % 1029,4 hPa 0,0 l/m 0 min 0 min 31 W/m 9,7 km/h (2 Bft) 94,29 %
26.03.2019 08:00 5,5 C 5,6 C 5,0 C 83 % 1029,4 hPa 0,0 l/m 0 min 0 min 25 W/m 16,1 km/h (3 Bft) 98,15 %
26.03.2019 08:02 5,6 C 5,6 C 5,0 C 83 % 1029,4 hPa 0,0 l/m 0 min 0 min 23 W/m 9,7 km/h (2 Bft) 97,87 %
26.03.2019 08:04 5,6 C 5,6 C 5,0 C 84 % 1029,4 hPa 0,0 l/m 0 min 0 min 21 W/m 6,4 km/h (2 Bft) 96,00 %
26.03.2019 08:06 5,6 C 5,6 C 5,0 C 84 % 1029,4 hPa 0,0 l/m 0 min 0 min 23 W/m 3,2 km/h (1 Bft) 97,92 %
26.03.2019 08:08 5,6 C 5,6 C 5,0 C 84 % 1029,4 hPa 0,0 l/m 0 min 0 min 41 W/m 9,7 km/h (2 Bft) 95,74 %
26.03.2019 08:10 5,7 C 5,6 C 5,0 C 84 % 1029,3 hPa 0,0 l/m 0 min 0 min 52 W/m 12,9 km/h (3 Bft) 95,65 %
26.03.2019 08:12 5,7 C 5,6 C 5,0 C 84 % 1029,3 hPa 0,0 l/m 0 min 0 min 58 W/m 3,2 km/h (1 Bft) 94,29 %
26.03.2019 08:14 5,7 C 5,6 C 5,0 C 84 % 1029,3 hPa 0,0 l/m 0 min 0 min 63 W/m 3,2 km/h (1 Bft) 94,55 %
26.03.2019 08:16 5,7 C 5,6 C 5,0 C 84 % 1029,3 hPa 0,0 l/m 0 min 0 min 64 W/m 3,2 km/h (1 Bft) 96,00 %
26.03.2019 08:18 5,7 C 5,6 C 5,6 C 84 % 1029,3 hPa 0,0 l/m 0 min 0 min 63 W/m 6,4 km/h (2 Bft) 95,83 %
26.03.2019 08:20 5,7 C 5,6 C 5,6 C 84 % 1029,3 hPa 0,0 l/m 0 min 0 min 55 W/m 3,2 km/h (1 Bft) 94,29 %
26.03.2019 08:22 5,8 C 6,1 C 5,6 C 84 % 1029,3 hPa 0,0 l/m 0 min 0 min 58 W/m 3,2 km/h (1 Bft) 95,74 %
26.03.2019 08:24 5,8 C 6,1 C 5,6 C 84 % 1029,3 hPa 0,0 l/m 0 min 0 min 65 W/m 3,2 km/h (1 Bft) 98,15 %
26.03.2019 08:26 5,8 C 6,1 C 5,6 C 84 % 1029,3 hPa 0,0 l/m 0 min 0 min 69 W/m 6,4 km/h (2 Bft) 98,00 %
26.03.2019 08:28 5,8 C 6,1 C 5,6 C 84 % 1029,3 hPa 0,0 l/m 0 min 0 min 71 W/m 6,4 km/h (2 Bft) 95,83 %
26.03.2019 08:30 5,8 C 6,1 C 5,6 C 84 % 1029,3 hPa 0,0 l/m 0 min 0 min 78 W/m 6,4 km/h (2 Bft) 95,74 %
26.03.2019 08:32 5,8 C 6,1 C 5,6 C 84 % 1029,4 hPa 0,0 l/m 0 min 0 min 86 W/m 6,4 km/h (2 Bft) 95,74 %
26.03.2019 08:34 5,8 C 6,1 C 5,6 C 84 % 1029,4 hPa 0,0 l/m 0 min 0 min 93 W/m 9,7 km/h (2 Bft) 94,29 %
26.03.2019 08:36 5,9 C 6,7 C 5,6 C 84 % 1029,4 hPa 0,0 l/m 0 min 0 min 106 W/m 6,4 km/h (2 Bft) 94,44 %
26.03.2019 08:38 5,9 C 6,7 C 6,1 C 84 % 1029,4 hPa 0,0 l/m 0 min 0 min 119 W/m 6,4 km/h (2 Bft) 95,74 %
26.03.2019 08:40 5,9 C 6,7 C 6,1 C 84 % 1029,5 hPa 0,0 l/m 0 min 0 min 121 W/m 9,7 km/h (2 Bft) 95,74 %
26.03.2019 08:42 6,0 C 6,7 C 6,1 C 84 % 1029,4 hPa 0,0 l/m 0 min 0 min 125 W/m 9,7 km/h (2 Bft) 95,74 %
26.03.2019 08:44 6,0 C 6,7 C 6,1 C 84 % 1029,4 hPa 0,0 l/m 0 min 0 min 123 W/m 9,7 km/h (2 Bft) 93,88 %
26.03.2019 08:46 6,1 C 6,7 C 6,1 C 84 % 1029,4 hPa 0,0 l/m 0 min 0 min 111 W/m 12,9 km/h (3 Bft) 93,75 %
26.03.2019 08:48 6,1 C 6,7 C 6,1 C 84 % 1029,4 hPa 0,0 l/m 0 min 2 min 88 W/m 12,9 km/h (3 Bft) 97,14 %
26.03.2019 08:50 6,2 C 6,7 C 5,6 C 84 % 1029,5 hPa 0,0 l/m 0 min 0 min 83 W/m 9,7 km/h (2 Bft) 90,91 %
26.03.2019 08:52 6,2 C 6,7 C 5,6 C 84 % 1029,4 hPa 0,0 l/m 0 min 2 min 94 W/m 9,7 km/h (2 Bft) 96,00 %
26.03.2019 08:54 6,2 C 6,7 C 5,6 C 84 % 1029,5 hPa 0,0 l/m 0 min 2 min 118 W/m 9,7 km/h (2 Bft) 95,83 %
26.03.2019 08:56 6,3 C 6,7 C 5,6 C 84 % 1029,5 hPa 0,0 l/m 0 min 0 min 139 W/m 9,7 km/h (2 Bft) 91,43 %
26.03.2019 08:58 6,3 C 6,7 C 5,6 C 84 % 1029,5 hPa 0,0 l/m 0 min 2 min 165 W/m 19,3 km/h (3 Bft) 96,30 %
26.03.2019 09:00 6,4 C 7,8 C 5,6 C 84 % 1029,4 hPa 0,0 l/m 2 min 0 min 220 W/m 12,9 km/h (3 Bft) 96,00 %
26.03.2019 09:02 6,4 C 9,4 C 6,7 C 84 % 1029,5 hPa 0,0 l/m 0 min 0 min 181 W/m 12,9 km/h (3 Bft) 95,83 %
26.03.2019 09:04 6,4 C 11,1 C 8,3 C 84 % 1029,4 hPa 0,0 l/m 2 min 0 min 495 W/m 12,9 km/h (3 Bft) 97,14 %
26.03.2019 09:06 6,6 C 11,1 C 8,3 C 84 % 1029,4 hPa 0,0 l/m 2 min 0 min 463 W/m 12,9 km/h (3 Bft) 92,59 %
26.03.2019 09:08 6,7 C 10,6 C 7,8 C 84 % 1029,4 hPa 0,0 l/m 2 min 0 min 231 W/m 16,1 km/h (3 Bft) 95,74 %
26.03.2019 09:10 6,8 C 10,0 C 7,8 C 83 % 1029,4 hPa 0,0 l/m 2 min 0 min 248 W/m 12,9 km/h (3 Bft) 100,00 %
26.03.2019 09:12 6,8 C 9,4 C 7,8 C 83 % 1029,4 hPa 0,0 l/m 2 min 0 min 234 W/m 12,9 km/h (3 Bft) 97,87 %
26.03.2019 09:14 6,9 C 8,3 C 7,2 C 82 % 1029,4 hPa 0,0 l/m 2 min 0 min 207 W/m 16,1 km/h (3 Bft) 100,00 %
26.03.2019 09:16 6,9 C 8,3 C 7,2 C 82 % 1029,4 hPa 0,0 l/m 0 min 0 min 191 W/m 12,9 km/h (3 Bft) 100,00 %
26.03.2019 09:18 7,0 C 8,3 C 7,2 C 81 % 1029,4 hPa 0,0 l/m 0 min 0 min 186 W/m 19,3 km/h (3 Bft) 97,22 %
26.03.2019 09:20 7,1 C 7,8 C 7,2 C 81 % 1029,4 hPa 0,0 l/m 0 min 0 min 208 W/m 16,1 km/h (3 Bft) 100,00 %
26.03.2019 09:22 7,1 C 8,3 C 7,2 C 80 % 1029,4 hPa 0,0 l/m 2 min 0 min 251 W/m 12,9 km/h (3 Bft) 98,15 %
26.03.2019 09:24 7,1 C 9,4 C 8,3 C 80 % 1029,6 hPa 0,0 l/m 2 min 0 min 299 W/m 12,9 km/h (3 Bft) 98,00 %
26.03.2019 09:26 7,2 C 8,9 C 7,8 C 80 % 1029,6 hPa 0,0 l/m 2 min 0 min 243 W/m 12,9 km/h (3 Bft) 100,00 %
26.03.2019 09:28 7,2 C 8,9 C 7,8 C 80 % 1029,5 hPa 0,0 l/m 0 min 0 min 194 W/m 12,9 km/h (3 Bft) 100,00 %
26.03.2019 09:30 7,3 C 8,3 C 7,2 C 80 % 1029,6 hPa 0,0 l/m 0 min 0 min 155 W/m 9,7 km/h (2 Bft) 100,00 %
26.03.2019 09:32 7,3 C 8,3 C 7,2 C 80 % 1029,5 hPa 0,0 l/m 0 min 0 min 158 W/m 12,9 km/h (3 Bft) 100,00 %
26.03.2019 09:34 7,3 C 8,3 C 7,2 C 80 % 1029,5 hPa 0,0 l/m 0 min 0 min 181 W/m 9,7 km/h (2 Bft) 100,00 %
26.03.2019 09:36 7,3 C 8,3 C 7,8 C 80 % 1029,5 hPa 0,0 l/m 0 min 0 min 205 W/m 16,1 km/h (3 Bft) 100,00 %
26.03.2019 09:38 7,4 C 8,3 C 7,8 C 79 % 1029,4 hPa 0,0 l/m 0 min 0 min 186 W/m 19,3 km/h (3 Bft) 100,00 %
26.03.2019 09:40 7,4 C 8,3 C 7,8 C 79 % 1029,5 hPa 0,0 l/m 0 min 0 min 163 W/m 9,7 km/h (2 Bft) 100,00 %
26.03.2019 09:42 7,4 C 8,3 C 7,2 C 80 % 1029,4 hPa 0,0 l/m 0 min 0 min 141 W/m 12,9 km/h (3 Bft) 100,00 %
26.03.2019 09:44 7,4 C 8,3 C 7,2 C 80 % 1029,4 hPa 0,0 l/m 0 min 0 min 130 W/m 9,7 km/h (2 Bft) 100,00 %
26.03.2019 09:46 7,4 C 8,3 C 7,2 C 80 % 1029,4 hPa 0,0 l/m 0 min 0 min 148 W/m 12,9 km/h (3 Bft) 100,00 %
26.03.2019 09:48 7,5 C 8,3 C 7,2 C 80 % 1029,4 hPa 0,0 l/m 0 min 0 min 170 W/m 9,7 km/h (2 Bft) 100,00 %
26.03.2019 09:50 7,5 C 8,3 C 7,2 C 80 % 1029,4 hPa 0,0 l/m 0 min 0 min 173 W/m 12,9 km/h (3 Bft) 100,00 %
26.03.2019 09:52 7,5 C 8,3 C 7,8 C 80 % 1029,4 hPa 0,0 l/m 0 min 0 min 194 W/m 9,7 km/h (2 Bft) 100,00 %
26.03.2019 09:54 7,6 C 9,4 C 8,3 C 80 % 1029,4 hPa 0,0 l/m 2 min 0 min 269 W/m 22,5 km/h (4 Bft) 95,74 %
26.03.2019 09:56 7,6 C 10,0 C 8,9 C 80 % 1029,5 hPa 0,0 l/m 2 min 0 min 352 W/m 19,3 km/h (3 Bft) 100,00 %
26.03.2019 09:58 7,7 C 10,6 C 9,4 C 80 % 1029,4 hPa 0,0 l/m 2 min 0 min 366 W/m 9,7 km/h (2 Bft) 100,00 %
26.03.2019 10:00 7,7 C 10,6 C 9,4 C 80 % 1029,4 hPa 0,0 l/m 2 min 0 min 328 W/m 9,7 km/h (2 Bft) 100,00 %
26.03.2019 10:02 7,8 C 10,6 C 9,4 C 80 % 1029,5 hPa 0,0 l/m 2 min 0 min 347 W/m 25,7 km/h (4 Bft) 100,00 %
26.03.2019 10:04 7,9 C 10,6 C 9,4 C 80 % 1029,6 hPa 0,0 l/m 2 min 0 min 355 W/m 19,3 km/h (3 Bft) 100,00 %
26.03.2019 10:06 7,9 C 10,6 C 9,4 C 79 % 1029,5 hPa 0,0 l/m 2 min 0 min 326 W/m 9,7 km/h (2 Bft) 97,83 %
26.03.2019 10:08 8,0 C 10,6 C 9,4 C 79 % 1029,4 hPa 0,0 l/m 0 min 0 min 257 W/m 19,3 km/h (3 Bft) 100,00 %
26.03.2019 10:10 8,1 C 10,0 C 8,9 C 79 % 1029,5 hPa 0,0 l/m 0 min 0 min 203 W/m 19,3 km/h (3 Bft) 100,00 %
26.03.2019 10:12 8,1 C 9,4 C 8,9 C 78 % 1029,5 hPa 0,0 l/m 0 min 0 min 161 W/m 16,1 km/h (3 Bft) 100,00 %
26.03.2019 10:14 8,1 C 8,9 C 8,3 C 77 % 1029,5 hPa 0,0 l/m 0 min 0 min 127 W/m 32,2 km/h (5 Bft) 100,00 %
26.03.2019 10:16 8,2 C 8,3 C 7,8 C 77 % 1029,5 hPa 0,0 l/m 0 min 0 min 105 W/m 16,1 km/h (3 Bft) 100,00 %
26.03.2019 10:18 8,1 C 8,3 C 7,8 C 77 % 1029,5 hPa 0,0 l/m 0 min 0 min 83 W/m 22,5 km/h (4 Bft) 100,00 %
26.03.2019 10:20 8,1 C 7,8 C 7,2 C 76 % 1029,6 hPa 0,0 l/m 0 min 0 min 69 W/m 12,9 km/h (3 Bft) 97,87 %
26.03.2019 10:22 8,1 C 7,8 C 7,2 C 76 % 1029,5 hPa 0,0 l/m 0 min 0 min 70 W/m 9,7 km/h (2 Bft) 100,00 %
26.03.2019 10:24 8,1 C 7,2 C 7,2 C 76 % 1029,5 hPa 0,0 l/m 0 min 0 min 73 W/m 12,9 km/h (3 Bft) 98,00 %
26.03.2019 10:26 8,0 C 7,2 C 6,7 C 76 % 1029,6 hPa 0,0 l/m 0 min 0 min 78 W/m 12,9 km/h (3 Bft) 97,92 %
26.03.2019 10:28 7,9 C 7,2 C 6,7 C 77 % 1029,5 hPa 0,0 l/m 0 min 0 min 82 W/m 19,3 km/h (3 Bft) 100,00 %
26.03.2019 10:30 7,8 C 7,2 C 6,7 C 77 % 1029,5 hPa 0,0 l/m 0 min 0 min 82 W/m 12,9 km/h (3 Bft) 100,00 %
26.03.2019 10:32 7,8 C 7,2 C 6,7 C 77 % 1029,5 hPa 0,0 l/m 0 min 0 min 82 W/m 9,7 km/h (2 Bft) 100,00 %
26.03.2019 10:34 7,7 C 7,2 C 6,7 C 77 % 1029,6 hPa 0,0 l/m 0 min 0 min 83 W/m 12,9 km/h (3 Bft) 100,00 %
26.03.2019 10:36 7,7 C 7,2 C 6,7 C 77 % 1029,6 hPa 0,0 l/m 0 min 0 min 72 W/m 12,9 km/h (3 Bft) 100,00 %
26.03.2019 10:38 7,7 C 7,2 C 6,7 C 78 % 1029,6 hPa 0,0 l/m 0 min 0 min 65 W/m 19,3 km/h (3 Bft) 100,00 %
26.03.2019 10:40 7,6 C 7,2 C 6,7 C 78 % 1029,7 hPa 0,0 l/m 0 min 0 min 74 W/m 16,1 km/h (3 Bft) 100,00 %
26.03.2019 10:42 7,6 C 7,2 C 6,7 C 77 % 1029,7 hPa 0,0 l/m 0 min 0 min 108 W/m 25,7 km/h (4 Bft) 97,92 %
26.03.2019 10:44 7,5 C 7,2 C 6,7 C 78 % 1029,7 hPa 0,0 l/m 0 min 0 min 154 W/m 22,5 km/h (4 Bft) 97,87 %
26.03.2019 10:46 7,4 C 7,2 C 7,2 C 78 % 1029,7 hPa 0,0 l/m 0 min 0 min 170 W/m 25,7 km/h (4 Bft) 97,14 %
26.03.2019 10:48 7,4 C 7,8 C 7,2 C 78 % 1029,8 hPa 0,0 l/m 0 min 0 min 167 W/m 22,5 km/h (4 Bft) 100,00 %
26.03.2019 10:50 7,4 C 7,8 C 7,2 C 78 % 1029,7 hPa 0,0 l/m 0 min 0 min 191 W/m 19,3 km/h (3 Bft) 100,00 %
26.03.2019 10:52 7,4 C 7,8 C 7,8 C 78 % 1029,7 hPa 0,0 l/m 0 min 0 min 232 W/m 22,5 km/h (4 Bft) 97,96 %
26.03.2019 10:54 7,4 C 8,3 C 7,8 C 78 % 1029,7 hPa 0,0 l/m 0 min 0 min 261 W/m 12,9 km/h (3 Bft) 95,83 %
26.03.2019 10:56 7,4 C 8,9 C 8,3 C 78 % 1029,7 hPa 0,0 l/m 0 min 0 min 280 W/m 9,7 km/h (2 Bft) 94,29 %
26.03.2019 10:58 7,5 C 8,9 C 7,8 C 78 % 1029,7 hPa 0,0 l/m 0 min 0 min 277 W/m 19,3 km/h (3 Bft) 98,18 %
26.03.2019 11:00 7,6 C 9,4 C 8,3 C 79 % 1029,7 hPa 0,0 l/m 2 min 0 min 296 W/m 9,7 km/h (2 Bft) 97,87 %
26.03.2019 11:02 7,6 C 9,4 C 8,9 C 79 % 1029,6 hPa 0,0 l/m 2 min 0 min 340 W/m 9,7 km/h (2 Bft) 95,92 %
26.03.2019 11:04 7,7 C 10,0 C 8,9 C 79 % 1029,6 hPa 0,0 l/m 2 min 0 min 355 W/m 19,3 km/h (3 Bft) 95,83 %
26.03.2019 11:06 7,7 C 10,0 C 8,9 C 79 % 1029,6 hPa 0,0 l/m 2 min 0 min 357 W/m 16,1 km/h (3 Bft) 91,49 %
26.03.2019 11:08 7,8 C 11,1 C 9,4 C 79 % 1029,6 hPa 0,0 l/m 2 min 0 min 370 W/m 16,1 km/h (3 Bft) 97,14 %
26.03.2019 11:10 7,9 C 11,7 C 9,4 C 79 % 1029,6 hPa 0,0 l/m 2 min 0 min 388 W/m 12,9 km/h (3 Bft) 92,73 %
26.03.2019 11:12 8,1 C 11,7 C 9,4 C 80 % 1029,5 hPa 0,0 l/m 2 min 0 min 360 W/m 16,1 km/h (3 Bft) 92,00 %
26.03.2019 11:14 8,1 C 10,6 C 9,4 C 79 % 1029,6 hPa 0,0 l/m 2 min 0 min 322 W/m 12,9 km/h (3 Bft) 93,75 %
26.03.2019 11:16 8,2 C 10,6 C 9,4 C 78 % 1029,5 hPa 0,0 l/m 2 min 0 min 312 W/m 12,9 km/h (3 Bft) 91,43 %
26.03.2019 11:18 8,3 C 10,6 C 9,4 C 78 % 1029,5 hPa 0,0 l/m 2 min 0 min 306 W/m 12,9 km/h (3 Bft) 94,44 %
26.03.2019 11:20 8,3 C 10,6 C 9,4 C 78 % 1029,5 hPa 0,0 l/m 2 min 0 min 313 W/m 19,3 km/h (3 Bft) 93,62 %
26.03.2019 11:22 8,4 C 10,6 C 9,4 C 78 % 1029,4 hPa 0,0 l/m 2 min 0 min 335 W/m 19,3 km/h (3 Bft) 86,00 %
26.03.2019 11:24 8,4 C 11,1 C 9,4 C 78 % 1029,4 hPa 0,0 l/m 2 min 0 min 415 W/m 19,3 km/h (3 Bft) 91,49 %
26.03.2019 11:26 8,5 C 11,1 C 9,4 C 77 % 1029,4 hPa 0,0 l/m 2 min 0 min 390 W/m 12,9 km/h (3 Bft) 93,75 %
26.03.2019 11:28 8,6 C 11,1 C 9,4 C 78 % 1029,4 hPa 0,0 l/m 2 min 0 min 313 W/m 22,5 km/h (4 Bft) 91,43 %
26.03.2019 11:30 8,6 C 11,1 C 9,4 C 78 % 1029,5 hPa 0,0 l/m 0 min 0 min 280 W/m 16,1 km/h (3 Bft) 93,62 %
26.03.2019 11:32 8,7 C 10,6 C 9,4 C 78 % 1029,5 hPa 0,0 l/m 0 min 0 min 286 W/m 19,3 km/h (3 Bft) 92,59 %
26.03.2019 11:34 8,7 C 11,1 C 9,4 C 77 % 1029,4 hPa 0,0 l/m 2 min 0 min 329 W/m 16,1 km/h (3 Bft) 95,74 %
26.03.2019 11:36 8,7 C 12,2 C 10,0 C 77 % 1029,4 hPa 0,0 l/m 2 min 0 min 395 W/m 9,7 km/h (2 Bft) 93,62 %
26.03.2019 11:38 8,8 C 12,8 C 10,0 C 77 % 1029,3 hPa 0,0 l/m 2 min 0 min 506 W/m 19,3 km/h (3 Bft) 95,65 %
26.03.2019 11:40 8,9 C 13,9 C 10,0 C 76 % 1029,3 hPa 0,0 l/m 2 min 0 min 495 W/m 12,9 km/h (3 Bft) 94,00 %
26.03.2019 11:42 9,0 C 14,4 C 10,0 C 76 % 1029,3 hPa 0,0 l/m 2 min 0 min 519 W/m 12,9 km/h (3 Bft) 95,74 %
26.03.2019 11:44 9,1 C 13,9 C 10,0 C 76 % 1029,3 hPa 0,0 l/m 2 min 0 min 570 W/m 9,7 km/h (2 Bft) 95,83 %
26.03.2019 11:46 9,2 C 15,0 C 10,6 C 77 % 1029,3 hPa 0,0 l/m 2 min 0 min 459 W/m 12,9 km/h (3 Bft) 94,29 %
26.03.2019 11:48 9,3 C 15,0 C 10,0 C 77 % 1029,4 hPa 0,0 l/m 2 min 0 min 559 W/m 16,1 km/h (3 Bft) 98,18 %
26.03.2019 11:50 9,4 C 16,1 C 10,6 C 77 % 1029,3 hPa 0,0 l/m 0 min 0 min 272 W/m 22,5 km/h (4 Bft) 97,96 %
26.03.2019 11:52 9,6 C 15,6 C 10,6 C 76 % 1029,3 hPa 0,0 l/m 0 min 0 min 272 W/m 9,7 km/h (2 Bft) 95,74 %
26.03.2019 11:54 9,7 C 16,1 C 10,6 C 75 % 1029,3 hPa 0,0 l/m 2 min 0 min 554 W/m 12,9 km/h (3 Bft) 95,83 %
26.03.2019 11:56 9,8 C 15,6 C 10,6 C 74 % 1029,3 hPa 0,0 l/m 2 min 0 min 707 W/m 12,9 km/h (3 Bft) 97,14 %
26.03.2019 11:58 9,9 C 15,0 C 10,6 C 74 % 1029,2 hPa 0,0 l/m 2 min 0 min 470 W/m 16,1 km/h (3 Bft) 98,18 %
26.03.2019 12:00 9,9 C 13,9 C 10,0 C 73 % 1029,4 hPa 0,0 l/m 2 min 0 min 460 W/m 19,3 km/h (3 Bft) 98,00 %
26.03.2019 12:02 9,9 C 14,4 C 10,0 C 72 % 1029,3 hPa 0,0 l/m 2 min 0 min 452 W/m 22,5 km/h (4 Bft) 97,83 %
26.03.2019 12:04 10,0 C 16,7 C 10,6 C 72 % 1029,3 hPa 0,0 l/m 2 min 0 min 767 W/m 19,3 km/h (3 Bft) 97,87 %
26.03.2019 12:08 10,3 C 18,3 C 11,7 C 73 % 1029,4 hPa 0,0 l/m 4 min 0 min 828 W/m 16,1 km/h (3 Bft) 97,87 %
26.03.2019 12:10 10,5 C 17,8 C 11,7 C 72 % 1029,3 hPa 0,0 l/m 2 min 0 min 665 W/m 19,3 km/h (3 Bft) 95,74 %
26.03.2019 12:12 10,6 C 17,2 C 11,7 C 71 % 1029,2 hPa 0,0 l/m 2 min 0 min 522 W/m 12,9 km/h (3 Bft) 97,92 %
26.03.2019 12:14 10,7 C 16,7 C 11,7 C 70 % 1029,3 hPa 0,0 l/m 2 min 0 min 602 W/m 16,1 km/h (3 Bft) 97,87 %
26.03.2019 12:16 10,8 C 16,7 C 11,7 C 70 % 1029,2 hPa 0,0 l/m 2 min 0 min 830 W/m 12,9 km/h (3 Bft) 97,83 %
26.03.2019 12:18 10,8 C 16,1 C 11,7 C 71 % 1029,1 hPa 0,0 l/m 2 min 0 min 420 W/m 12,9 km/h (3 Bft) 95,74 %
26.03.2019 12:20 10,9 C 14,4 C 11,7 C 70 % 1029,1 hPa 0,0 l/m 2 min 0 min 442 W/m 16,1 km/h (3 Bft) 97,14 %
26.03.2019 12:22 10,9 C 16,1 C 12,2 C 70 % 1029,1 hPa 0,0 l/m 2 min 0 min 528 W/m 19,3 km/h (3 Bft) 98,18 %
26.03.2019 12:24 11,1 C 15,6 C 12,2 C 70 % 1029,2 hPa 0,0 l/m 2 min 0 min 556 W/m 19,3 km/h (3 Bft) 97,87 %
26.03.2019 12:26 11,1 C 13,9 C 12,2 C 68 % 1029,2 hPa 0,0 l/m 2 min 0 min 390 W/m 12,9 km/h (3 Bft) 97,96 %
26.03.2019 12:28 11,0 C 13,3 C 11,7 C 67 % 1029,1 hPa 0,0 l/m 0 min 0 min 309 W/m 16,1 km/h (3 Bft) 97,92 %
26.03.2019 12:30 11,0 C 12,8 C 11,1 C 66 % 1029,1 hPa 0,0 l/m 0 min 0 min 253 W/m 12,9 km/h (3 Bft) 97,87 %
26.03.2019 12:32 10,9 C 11,7 C 10,0 C 66 % 1029,0 hPa 0,0 l/m 0 min 0 min 148 W/m 12,9 km/h (3 Bft) 94,29 %
26.03.2019 12:34 10,9 C 10,6 C 10,0 C 67 % 1029,1 hPa 0,0 l/m 0 min 0 min 100 W/m 12,9 km/h (3 Bft) 98,18 %
26.03.2019 12:36 10,8 C 10,0 C 9,4 C 67 % 1029,1 hPa 0,0 l/m 0 min 0 min 84 W/m 16,1 km/h (3 Bft) 97,87 %
26.03.2019 12:38 10,7 C 9,4 C 8,9 C 67 % 1029,1 hPa 0,0 l/m 0 min 0 min 71 W/m 9,7 km/h (2 Bft) 97,83 %
26.03.2019 12:40 10,6 C 9,4 C 8,9 C 68 % 1029,1 hPa 0,0 l/m 0 min 0 min 57 W/m 12,9 km/h (3 Bft) 97,87 %
26.03.2019 12:42 10,4 C 8,9 C 8,9 C 69 % 1029,1 hPa 0,0 l/m 0 min 0 min 45 W/m 12,9 km/h (3 Bft) 96,00 %
26.03.2019 12:44 10,2 C 8,9 C 8,3 C 69 % 1029,1 hPa 0,0 l/m 0 min 0 min 43 W/m 12,9 km/h (3 Bft) 97,92 %
26.03.2019 12:46 10,1 C 8,3 C 8,3 C 69 % 1029,1 hPa 0,0 l/m 0 min 0 min 42 W/m 12,9 km/h (3 Bft) 100,00 %
26.03.2019 12:48 9,9 C 8,3 C 7,8 C 70 % 1029,1 hPa 0,0 l/m 0 min 0 min 41 W/m 9,7 km/h (2 Bft) 96,36 %
26.03.2019 12:50 9,8 C 8,3 C 7,8 C 71 % 1029,0 hPa 0,0 l/m 0 min 0 min 49 W/m 12,9 km/h (3 Bft) 97,96 %
26.03.2019 12:52 9,7 C 8,3 C 7,8 C 71 % 1029,0 hPa 0,0 l/m 0 min 0 min 65 W/m 9,7 km/h (2 Bft) 97,87 %
26.03.2019 12:54 9,6 C 8,3 C 7,8 C 72 % 1029,2 hPa 0,0 l/m 0 min 0 min 85 W/m 12,9 km/h (3 Bft) 95,83 %
26.03.2019 12:56 9,5 C 8,3 C 8,3 C 73 % 1029,1 hPa 0,0 l/m 0 min 0 min 95 W/m 12,9 km/h (3 Bft) 97,87 %
26.03.2019 12:58 9,4 C 8,3 C 8,3 C 73 % 1029,2 hPa 0,0 l/m 0 min 0 min 100 W/m 12,9 km/h (3 Bft) 97,87 %
26.03.2019 13:00 9,3 C 8,3 C 8,3 C 73 % 1029,2 hPa 0,0 l/m 0 min 0 min 118 W/m 16,1 km/h (3 Bft) 100,00 %
26.03.2019 13:02 9,2 C 8,9 C 8,3 C 72 % 1029,2 hPa 0,0 l/m 0 min 0 min 134 W/m 35,4 km/h (5 Bft) 96,30 %
26.03.2019 13:04 9,1 C 8,9 C 8,3 C 72 % 1029,1 hPa 0,0 l/m 0 min 0 min 147 W/m 16,1 km/h (3 Bft) 96,00 %
26.03.2019 13:06 9,0 C 8,9 C 8,9 C 72 % 1029,1 hPa 0,0 l/m 0 min 0 min 191 W/m 29,0 km/h (5 Bft) 93,75 %
26.03.2019 13:08 9,0 C 9,4 C 8,9 C 73 % 1029,0 hPa 0,0 l/m 0 min 0 min 196 W/m 25,7 km/h (4 Bft) 95,74 %
26.03.2019 13:10 8,9 C 9,4 C 8,9 C 73 % 1029,0 hPa 0,0 l/m 0 min 0 min 197 W/m 22,5 km/h (4 Bft) 97,87 %
26.03.2019 13:12 8,9 C 9,4 C 8,9 C 72 % 1029,0 hPa 0,0 l/m 0 min 0 min 208 W/m 16,1 km/h (3 Bft) 94,29 %
26.03.2019 13:14 8,9 C 9,4 C 9,4 C 73 % 1029,0 hPa 0,0 l/m 0 min 0 min 220 W/m 22,5 km/h (4 Bft) 95,74 %
26.03.2019 13:16 8,9 C 10,0 C 9,4 C 73 % 1029,0 hPa 0,0 l/m 0 min 0 min 238 W/m 25,7 km/h (4 Bft) 94,44 %
26.03.2019 13:18 9,0 C 10,0 C 9,4 C 73 % 1029,0 hPa 0,0 l/m 0 min 0 min 248 W/m 16,1 km/h (3 Bft) 96,00 %
26.03.2019 13:20 9,1 C 10,0 C 9,4 C 74 % 1029,0 hPa 0,0 l/m 0 min 0 min 257 W/m 16,1 km/h (3 Bft) 93,75 %
26.03.2019 13:22 9,1 C 10,6 C 10,0 C 74 % 1028,9 hPa 0,0 l/m 0 min 0 min 258 W/m 19,3 km/h (3 Bft) 97,87 %
26.03.2019 13:24 9,1 C 10,6 C 10,0 C 74 % 1029,0 hPa 0,0 l/m 0 min 0 min 250 W/m 29,0 km/h (5 Bft) 95,74 %
26.03.2019 13:26 9,1 C 10,0 C 9,4 C 73 % 1028,9 hPa 0,0 l/m 0 min 0 min 253 W/m 19,3 km/h (3 Bft) 97,83 %
26.03.2019 13:28 9,2 C 10,0 C 9,4 C 72 % 1028,9 hPa 0,0 l/m 0 min 0 min 280 W/m 22,5 km/h (4 Bft) 97,87 %
26.03.2019 13:30 9,2 C 10,6 C 10,0 C 73 % 1028,9 hPa 0,0 l/m 0 min 0 min 296 W/m 22,5 km/h (4 Bft) 97,14 %
26.03.2019 13:32 9,2 C 10,6 C 10,0 C 73 % 1028,9 hPa 0,0 l/m 0 min 0 min 297 W/m 19,3 km/h (3 Bft) 97,87 %
26.03.2019 13:34 9,2 C 10,6 C 10,0 C 73 % 1028,9 hPa 0,0 l/m 0 min 0 min 300 W/m 22,5 km/h (4 Bft) 98,18 %
26.03.2019 13:36 9,3 C 10,6 C 10,0 C 73 % 1028,9 hPa 0,0 l/m 0 min 0 min 291 W/m 16,1 km/h (3 Bft) 97,96 %
26.03.2019 13:38 9,3 C 10,6 C 10,0 C 73 % 1028,9 hPa 0,0 l/m 0 min 0 min 290 W/m 22,5 km/h (4 Bft) 95,74 %
26.03.2019 13:40 9,3 C 10,6 C 10,0 C 73 % 1029,0 hPa 0,0 l/m 2 min 0 min 319 W/m 16,1 km/h (3 Bft) 95,74 %
26.03.2019 13:42 9,4 C 11,1 C 10,6 C 73 % 1028,9 hPa 0,0 l/m 2 min 0 min 344 W/m 22,5 km/h (4 Bft) 95,83 %
26.03.2019 13:44 9,4 C 11,1 C 10,6 C 72 % 1028,9 hPa 0,0 l/m 2 min 0 min 385 W/m 12,9 km/h (3 Bft) 94,29 %
26.03.2019 13:46 9,5 C 12,2 C 11,1 C 73 % 1028,9 hPa 0,0 l/m 2 min 0 min 416 W/m 12,9 km/h (3 Bft) 93,62 %
26.03.2019 13:48 9,6 C 12,2 C 11,7 C 73 % 1028,9 hPa 0,0 l/m 2 min 0 min 422 W/m 12,9 km/h (3 Bft) 96,30 %
26.03.2019 13:50 9,7 C 13,3 C 11,7 C 73 % 1028,9 hPa 0,0 l/m 2 min 0 min 464 W/m 16,1 km/h (3 Bft) 96,00 %
26.03.2019 13:52 9,8 C 13,3 C 11,7 C 72 % 1028,9 hPa 0,0 l/m 2 min 0 min 470 W/m 16,1 km/h (3 Bft) 97,87 %
26.03.2019 13:54 9,9 C 13,3 C 11,7 C 71 % 1028,8 hPa 0,0 l/m 2 min 0 min 406 W/m 16,1 km/h (3 Bft) 95,74 %
26.03.2019 13:56 9,9 C 12,2 C 11,1 C 71 % 1028,9 hPa 0,0 l/m 2 min 0 min 314 W/m 19,3 km/h (3 Bft) 97,92 %
26.03.2019 13:58 9,9 C 11,7 C 10,6 C 71 % 1028,9 hPa 0,0 l/m 0 min 0 min 255 W/m 19,3 km/h (3 Bft) 97,14 %
26.03.2019 14:00 9,9 C 11,1 C 10,6 C 70 % 1028,9 hPa 0,0 l/m 0 min 0 min 225 W/m 25,7 km/h (4 Bft) 96,30 %
26.03.2019 14:02 9,9 C 11,1 C 10,0 C 70 % 1028,8 hPa 0,0 l/m 0 min 0 min 213 W/m 9,7 km/h (2 Bft) 97,87 %
26.03.2019 14:04 9,9 C 10,6 C 10,0 C 71 % 1028,8 hPa 0,0 l/m 0 min 0 min 207 W/m 19,3 km/h (3 Bft) 96,00 %
26.03.2019 14:06 9,9 C 10,6 C 10,0 C 70 % 1028,8 hPa 0,0 l/m 0 min 0 min 189 W/m 19,3 km/h (3 Bft) 97,87 %
26.03.2019 14:08 9,9 C 10,0 C 10,0 C 70 % 1028,7 hPa 0,0 l/m 0 min 0 min 186 W/m 16,1 km/h (3 Bft) 97,87 %
26.03.2019 14:10 9,9 C 10,0 C 9,4 C 70 % 1028,8 hPa 0,0 l/m 0 min 0 min 192 W/m 16,1 km/h (3 Bft) 95,83 %
26.03.2019 14:12 9,8 C 10,0 C 9,4 C 71 % 1028,8 hPa 0,0 l/m 0 min 0 min 174 W/m 16,1 km/h (3 Bft) 97,14 %
26.03.2019 14:14 9,8 C 10,0 C 9,4 C 71 % 1028,8 hPa 0,0 l/m 0 min 0 min 121 W/m 12,9 km/h (3 Bft) 96,30 %
26.03.2019 14:16 9,7 C 9,4 C 8,9 C 71 % 1028,7 hPa 0,0 l/m 0 min 0 min 74 W/m 19,3 km/h (3 Bft) 97,87 %
26.03.2019 14:18 9,7 C 8,9 C 8,9 C 70 % 1028,7 hPa 0,0 l/m 0 min 0 min 47 W/m 29,0 km/h (5 Bft) 98,00 %
26.03.2019 14:20 9,6 C 8,9 C 8,9 C 71 % 1028,6 hPa 0,0 l/m 0 min 2 min 37 W/m 19,3 km/h (3 Bft) 97,92 %
26.03.2019 14:22 9,5 C 8,3 C 8,3 C 71 % 1028,6 hPa 0,0 l/m 0 min 0 min 34 W/m 35,4 km/h (5 Bft) 97,14 %
26.03.2019 14:24 9,4 C 8,3 C 7,8 C 72 % 1028,7 hPa 0,0 l/m 0 min 0 min 35 W/m 22,5 km/h (4 Bft) 95,74 %
26.03.2019 14:26 9,3 C 7,8 C 7,8 C 72 % 1028,7 hPa 0,0 l/m 0 min 0 min 40 W/m 22,5 km/h (4 Bft) 98,15 %
26.03.2019 14:28 9,1 C 7,8 C 7,8 C 73 % 1028,7 hPa 0,0 l/m 0 min 0 min 48 W/m 19,3 km/h (3 Bft) 96,00 %
26.03.2019 14:30 9,0 C 7,8 C 7,8 C 73 % 1028,8 hPa 0,0 l/m 0 min 0 min 53 W/m 19,3 km/h (3 Bft) 97,92 %
26.03.2019 14:32 8,9 C 7,8 C 7,8 C 73 % 1028,9 hPa 0,0 l/m 0 min 0 min 52 W/m 25,7 km/h (4 Bft) 100,00 %
26.03.2019 14:34 8,8 C 7,8 C 7,8 C 74 % 1028,9 hPa 0,0 l/m 0 min 0 min 50 W/m 19,3 km/h (3 Bft) 100,00 %
26.03.2019 14:36 8,8 C 7,8 C 7,8 C 74 % 1028,7 hPa 0,0 l/m 0 min 0 min 56 W/m 29,0 km/h (5 Bft) 100,00 %
26.03.2019 14:38 8,7 C 7,8 C 7,8 C 75 % 1028,7 hPa 0,0 l/m 0 min 0 min 80 W/m 19,3 km/h (3 Bft) 100,00 %
26.03.2019 14:40 8,7 C 8,3 C 7,8 C 75 % 1028,7 hPa 0,0 l/m 0 min 0 min 106 W/m 19,3 km/h (3 Bft) 100,00 %
26.03.2019 14:42 8,7 C 8,3 C 7,8 C 75 % 1028,6 hPa 0,0 l/m 0 min 0 min 151 W/m 19,3 km/h (3 Bft) 100,00 %
26.03.2019 14:44 8,6 C 8,9 C 8,3 C 76 % 1028,6 hPa 0,0 l/m 0 min 0 min 191 W/m 12,9 km/h (3 Bft) 98,18 %
26.03.2019 14:46 8,7 C 8,9 C 8,9 C 76 % 1028,6 hPa 0,0 l/m 0 min 0 min 219 W/m 22,5 km/h (4 Bft) 100,00 %
26.03.2019 14:48 8,7 C 9,4 C 8,9 C 76 % 1028,6 hPa 0,0 l/m 0 min 0 min 227 W/m 19,3 km/h (3 Bft) 100,00 %
26.03.2019 14:50 8,7 C 9,4 C 8,9 C 76 % 1028,7 hPa 0,0 l/m 0 min 0 min 187 W/m 9,7 km/h (2 Bft) 97,14 %
26.03.2019 14:52 8,7 C 9,4 C 8,9 C 77 % 1028,7 hPa 0,0 l/m 0 min 0 min 164 W/m 9,7 km/h (2 Bft) 100,00 %
26.03.2019 14:54 8,7 C 9,4 C 8,9 C 76 % 1028,6 hPa 0,0 l/m 0 min 0 min 170 W/m 16,1 km/h (3 Bft) 100,00 %
26.03.2019 14:56 8,8 C 9,4 C 8,9 C 76 % 1028,6 hPa 0,0 l/m 0 min 0 min 153 W/m 19,3 km/h (3 Bft) 100,00 %
26.03.2019 14:58 8,8 C 9,4 C 8,9 C 77 % 1028,7 hPa 0,0 l/m 0 min 0 min 158 W/m 19,3 km/h (3 Bft) 100,00 %
26.03.2019 15:00 8,8 C 9,4 C 8,9 C 77 % 1028,7 hPa 0,0 l/m 0 min 0 min 190 W/m 12,9 km/h (3 Bft) 100,00 %
26.03.2019 15:02 8,9 C 9,4 C 9,4 C 77 % 1028,7 hPa 0,0 l/m 0 min 0 min 222 W/m 19,3 km/h (3 Bft) 100,00 %
26.03.2019 15:04 8,9 C 10,0 C 9,4 C 77 % 1028,7 hPa 0,0 l/m 0 min 0 min 228 W/m 19,3 km/h (3 Bft) 100,00 %
26.03.2019 15:06 8,9 C 10,0 C 9,4 C 77 % 1028,8 hPa 0,0 l/m 0 min 0 min 218 W/m 22,5 km/h (4 Bft) 100,00 %
26.03.2019 15:08 9,0 C 10,0 C 9,4 C 76 % 1028,8 hPa 0,0 l/m 0 min 0 min 207 W/m 19,3 km/h (3 Bft) 100,00 %
26.03.2019 15:10 9,1 C 10,0 C 9,4 C 76 % 1028,8 hPa 0,0 l/m 0 min 0 min 197 W/m 22,5 km/h (4 Bft) 100,00 %
26.03.2019 15:12 9,1 C 9,4 C 9,4 C 76 % 1028,7 hPa 0,0 l/m 0 min 0 min 181 W/m 16,1 km/h (3 Bft) 94,29 %
26.03.2019 15:14 9,1 C 9,4 C 9,4 C 76 % 1028,7 hPa 0,0 l/m 0 min 0 min 170 W/m 22,5 km/h (4 Bft) 100,00 %
26.03.2019 15:16 9,1 C 9,4 C 9,4 C 76 % 1028,7 hPa 0,0 l/m 0 min 0 min 153 W/m 16,1 km/h (3 Bft) 100,00 %
26.03.2019 15:18 9,1 C 9,4 C 8,9 C 75 % 1028,7 hPa 0,0 l/m 0 min 0 min 135 W/m 16,1 km/h (3 Bft) 100,00 %
26.03.2019 15:20 9,1 C 9,4 C 8,9 C 75 % 1028,6 hPa 0,0 l/m 0 min 0 min 134 W/m 19,3 km/h (3 Bft) 100,00 %
26.03.2019 15:22 9,1 C 9,4 C 8,9 C 75 % 1028,6 hPa 0,0 l/m 0 min 0 min 139 W/m 16,1 km/h (3 Bft) 100,00 %
26.03.2019 15:24 9,2 C 9,4 C 8,9 C 75 % 1028,6 hPa 0,0 l/m 0 min 0 min 147 W/m 19,3 km/h (3 Bft) 100,00 %
26.03.2019 15:26 9,2 C 9,4 C 9,4 C 75 % 1028,6 hPa 0,0 l/m 0 min 0 min 163 W/m 19,3 km/h (3 Bft) 97,14 %
26.03.2019 15:28 9,2 C 9,4 C 9,4 C 75 % 1028,6 hPa 0,0 l/m 0 min 0 min 160 W/m 19,3 km/h (3 Bft) 100,00 %
26.03.2019 15:30 9,2 C 9,4 C 8,9 C 75 % 1028,6 hPa 0,0 l/m 0 min 0 min 150 W/m 16,1 km/h (3 Bft) 100,00 %
26.03.2019 15:32 9,2 C 9,4 C 8,9 C 75 % 1028,6 hPa 0,0 l/m 0 min 0 min 134 W/m 12,9 km/h (3 Bft) 100,00 %
26.03.2019 15:34 9,2 C 9,4 C 8,9 C 75 % 1028,6 hPa 0,0 l/m 0 min 0 min 117 W/m 9,7 km/h (2 Bft) 100,00 %
26.03.2019 15:36 9,2 C 8,9 C 8,9 C 75 % 1028,6 hPa 0,0 l/m 0 min 0 min 101 W/m 9,7 km/h (2 Bft) 100,00 %
26.03.2019 15:38 9,2 C 8,9 C 8,9 C 75 % 1028,6 hPa 0,0 l/m 0 min 0 min 92 W/m 16,1 km/h (3 Bft) 100,00 %
26.03.2019 15:40 9,2 C 8,9 C 8,9 C 75 % 1028,6 hPa 0,0 l/m 0 min 0 min 93 W/m 12,9 km/h (3 Bft) 100,00 %
26.03.2019 15:42 9,1 C 8,9 C 8,9 C 75 % 1028,6 hPa 0,0 l/m 0 min 0 min 95 W/m 12,9 km/h (3 Bft) 95,83 %
26.03.2019 15:44 9,1 C 8,9 C 8,3 C 75 % 1028,6 hPa 0,0 l/m 0 min 0 min 96 W/m 16,1 km/h (3 Bft) 97,87 %
26.03.2019 15:46 9,1 C 8,9 C 8,3 C 75 % 1028,6 hPa 0,0 l/m 0 min 0 min 105 W/m 25,7 km/h (4 Bft) 97,83 %
26.03.2019 15:48 9,1 C 8,9 C 8,3 C 75 % 1028,7 hPa 0,0 l/m 0 min 0 min 116 W/m 16,1 km/h (3 Bft) 97,22 %
26.03.2019 15:50 9,1 C 8,9 C 8,9 C 75 % 1028,6 hPa 0,0 l/m 0 min 0 min 123 W/m 22,5 km/h (4 Bft) 98,15 %
26.03.2019 15:52 9,1 C 8,9 C 8,9 C 75 % 1028,7 hPa 0,0 l/m 0 min 0 min 130 W/m 19,3 km/h (3 Bft) 95,74 %
26.03.2019 15:54 9,1 C 8,9 C 8,9 C 75 % 1028,6 hPa 0,0 l/m 0 min 0 min 135 W/m 16,1 km/h (3 Bft) 95,92 %
26.03.2019 15:56 9,1 C 9,4 C 8,9 C 75 % 1028,6 hPa 0,0 l/m 0 min 0 min 140 W/m 12,9 km/h (3 Bft) 97,96 %
26.03.2019 15:58 9,1 C 9,4 C 8,9 C 75 % 1028,6 hPa 0,0 l/m 0 min 0 min 139 W/m 19,3 km/h (3 Bft) 97,14 %
26.03.2019 16:00 9,1 C 9,4 C 8,9 C 75 % 1028,6 hPa 0,0 l/m 0 min 0 min 142 W/m 19,3 km/h (3 Bft) 97,83 %
26.03.2019 16:02 9,1 C 9,4 C 8,9 C 75 % 1028,6 hPa 0,0 l/m 0 min 0 min 142 W/m 22,5 km/h (4 Bft) 94,55 %
26.03.2019 16:04 9,1 C 9,4 C 8,9 C 75 % 1028,6 hPa 0,0 l/m 0 min 0 min 139 W/m 12,9 km/h (3 Bft) 92,00 %
26.03.2019 16:06 9,1 C 9,4 C 8,9 C 75 % 1028,5 hPa 0,0 l/m 0 min 0 min 142 W/m 12,9 km/h (3 Bft) 95,65 %
26.03.2019 16:08 9,1 C 9,4 C 8,9 C 75 % 1028,5 hPa 0,0 l/m 0 min 0 min 150 W/m 12,9 km/h (3 Bft) 97,87 %
26.03.2019 16:10 9,2 C 9,4 C 8,9 C 76 % 1028,5 hPa 0,0 l/m 0 min 0 min 144 W/m 12,9 km/h (3 Bft) 95,74 %
26.03.2019 16:12 9,2 C 9,4 C 8,9 C 75 % 1028,5 hPa 0,0 l/m 0 min 0 min 129 W/m 16,1 km/h (3 Bft) 91,67 %
26.03.2019 16:14 9,2 C 9,4 C 8,9 C 76 % 1028,5 hPa 0,0 l/m 0 min 0 min 124 W/m 19,3 km/h (3 Bft) 95,74 %
26.03.2019 16:16 9,2 C 9,4 C 8,9 C 75 % 1028,5 hPa 0,0 l/m 0 min 0 min 118 W/m 9,7 km/h (2 Bft) 94,29 %
26.03.2019 16:18 9,2 C 9,4 C 8,9 C 75 % 1028,5 hPa 0,0 l/m 0 min 0 min 114 W/m 12,9 km/h (3 Bft) 94,55 %
26.03.2019 16:20 9,2 C 9,4 C 8,9 C 75 % 1028,5 hPa 0,0 l/m 0 min 0 min 112 W/m 9,7 km/h (2 Bft) 95,65 %
26.03.2019 16:22 9,2 C 9,4 C 8,9 C 75 % 1028,5 hPa 0,0 l/m 0 min 0 min 109 W/m 16,1 km/h (3 Bft) 96,00 %
26.03.2019 16:24 9,2 C 9,4 C 8,9 C 75 % 1028,4 hPa 0,0 l/m 0 min 0 min 109 W/m 19,3 km/h (3 Bft) 95,83 %
26.03.2019 16:26 9,2 C 9,4 C 8,9 C 75 % 1028,5 hPa 0,0 l/m 0 min 0 min 107 W/m 16,1 km/h (3 Bft) 94,29 %
26.03.2019 16:28 9,2 C 8,9 C 8,9 C 75 % 1028,4 hPa 0,0 l/m 0 min 0 min 105 W/m 12,9 km/h (3 Bft) 98,18 %
26.03.2019 16:30 9,2 C 8,9 C 8,9 C 75 % 1028,4 hPa 0,0 l/m 0 min 0 min 112 W/m 9,7 km/h (2 Bft) 97,83 %
26.03.2019 16:32 9,2 C 9,4 C 8,9 C 76 % 1028,4 hPa 0,0 l/m 0 min 0 min 114 W/m 12,9 km/h (3 Bft) 93,62 %
26.03.2019 16:34 9,2 C 9,4 C 8,9 C 76 % 1028,4 hPa 0,0 l/m 0 min 0 min 105 W/m 12,9 km/h (3 Bft) 98,00 %
26.03.2019 16:36 9,2 C 9,4 C 8,9 C 76 % 1028,4 hPa 0,0 l/m 0 min 0 min 102 W/m 16,1 km/h (3 Bft) 97,87 %
26.03.2019 16:38 9,2 C 9,4 C 8,9 C 75 % 1028,4 hPa 0,0 l/m 0 min 0 min 98 W/m 16,1 km/h (3 Bft) 97,87 %
26.03.2019 16:40 9,2 C 9,4 C 8,9 C 75 % 1028,4 hPa 0,0 l/m 0 min 0 min 98 W/m 19,3 km/h (3 Bft) 95,74 %
26.03.2019 16:42 9,2 C 9,4 C 8,9 C 74 % 1028,4 hPa 0,0 l/m 0 min 0 min 102 W/m 16,1 km/h (3 Bft) 93,75 %
26.03.2019 16:44 9,1 C 9,4 C 8,9 C 74 % 1028,3 hPa 0,0 l/m 0 min 0 min 105 W/m 12,9 km/h (3 Bft) 97,14 %
26.03.2019 16:46 9,1 C 9,4 C 8,9 C 74 % 1028,3 hPa 0,0 l/m 0 min 0 min 110 W/m 22,5 km/h (4 Bft) 96,30 %
26.03.2019 16:48 9,1 C 9,4 C 8,9 C 74 % 1028,3 hPa 0,0 l/m 0 min 0 min 114 W/m 16,1 km/h (3 Bft) 97,87 %
26.03.2019 16:50 9,1 C 9,4 C 8,9 C 74 % 1028,3 hPa 0,0 l/m 0 min 0 min 117 W/m 9,7 km/h (2 Bft) 98,00 %
26.03.2019 16:52 9,1 C 9,4 C 8,9 C 74 % 1028,3 hPa 0,0 l/m 0 min 0 min 120 W/m 16,1 km/h (3 Bft) 95,74 %
26.03.2019 16:54 9,2 C 9,4 C 8,9 C 74 % 1028,3 hPa 0,0 l/m 0 min 0 min 117 W/m 16,1 km/h (3 Bft) 95,83 %
26.03.2019 16:56 9,2 C 9,4 C 8,9 C 74 % 1028,3 hPa 0,0 l/m 0 min 0 min 114 W/m 19,3 km/h (3 Bft) 93,48 %
26.03.2019 16:58 9,2 C 9,4 C 8,9 C 74 % 1028,3 hPa 0,0 l/m 0 min 0 min 114 W/m 12,9 km/h (3 Bft) 95,74 %
26.03.2019 17:00 9,2 C 9,4 C 8,9 C 74 % 1028,3 hPa 0,0 l/m 0 min 0 min 106 W/m 16,1 km/h (3 Bft) 93,62 %
26.03.2019 17:02 9,2 C 9,4 C 8,9 C 73 % 1028,3 hPa 0,0 l/m 0 min 0 min 94 W/m 12,9 km/h (3 Bft) 94,29 %
26.03.2019 17:04 9,2 C 9,4 C 8,9 C 74 % 1028,3 hPa 0,0 l/m 0 min 0 min 86 W/m 12,9 km/h (3 Bft) 94,55 %
26.03.2019 17:06 9,2 C 9,4 C 8,9 C 74 % 1028,3 hPa 0,0 l/m 0 min 0 min 89 W/m 12,9 km/h (3 Bft) 95,65 %
26.03.2019 17:08 9,2 C 9,4 C 8,9 C 74 % 1028,3 hPa 0,0 l/m 0 min 0 min 97 W/m 9,7 km/h (2 Bft) 95,74 %
26.03.2019 17:10 9,2 C 9,4 C 8,9 C 74 % 1028,4 hPa 0,0 l/m 0 min 0 min 98 W/m 19,3 km/h (3 Bft) 95,74 %
26.03.2019 17:12 9,2 C 8,9 C 8,9 C 74 % 1028,4 hPa 0,0 l/m 0 min 0 min 97 W/m 19,3 km/h (3 Bft) 96,00 %
26.03.2019 17:14 9,2 C 9,4 C 8,9 C 74 % 1028,4 hPa 0,0 l/m 0 min 0 min 92 W/m 12,9 km/h (3 Bft) 95,83 %
26.03.2019 17:16 9,2 C 8,9 C 8,9 C 74 % 1028,4 hPa 0,0 l/m 0 min 0 min 94 W/m 19,3 km/h (3 Bft) 97,14 %
26.03.2019 17:18 9,2 C 8,9 C 8,9 C 73 % 1028,3 hPa 0,0 l/m 0 min 0 min 96 W/m 16,1 km/h (3 Bft) 95,74 %
26.03.2019 17:20 9,2 C 8,9 C 8,9 C 74 % 1028,4 hPa 0,0 l/m 0 min 0 min 89 W/m 19,3 km/h (3 Bft) 98,15 %
26.03.2019 17:22 9,2 C 8,9 C 8,9 C 73 % 1028,4 hPa 0,0 l/m 0 min 0 min 77 W/m 16,1 km/h (3 Bft) 98,00 %
26.03.2019 17:24 9,2 C 8,9 C 8,3 C 73 % 1028,4 hPa 0,0 l/m 0 min 0 min 71 W/m 12,9 km/h (3 Bft) 97,92 %
26.03.2019 17:26 9,2 C 8,9 C 8,3 C 73 % 1028,3 hPa 0,0 l/m 0 min 0 min 74 W/m 19,3 km/h (3 Bft) 97,87 %
26.03.2019 17:28 9,2 C 8,9 C 8,3 C 73 % 1028,3 hPa 0,0 l/m 0 min 0 min 79 W/m 12,9 km/h (3 Bft) 97,14 %
26.03.2019 17:30 9,1 C 8,9 C 8,3 C 73 % 1028,3 hPa 0,0 l/m 0 min 0 min 83 W/m 19,3 km/h (3 Bft) 98,15 %
26.03.2019 17:32 9,1 C 8,9 C 8,3 C 73 % 1028,4 hPa 0,0 l/m 0 min 0 min 88 W/m 12,9 km/h (3 Bft) 96,00 %
26.03.2019 17:34 9,1 C 8,9 C 8,3 C 73 % 1028,3 hPa 0,0 l/m 0 min 0 min 87 W/m 9,7 km/h (2 Bft) 97,87 %
26.03.2019 17:36 9,1 C 8,9 C 8,3 C 73 % 1028,3 hPa 0,0 l/m 0 min 0 min 82 W/m 9,7 km/h (2 Bft) 97,92 %
26.03.2019 17:38 9,1 C 8,9 C 8,3 C 74 % 1028,3 hPa 0,0 l/m 0 min 0 min 77 W/m 16,1 km/h (3 Bft) 97,87 %
26.03.2019 17:40 9,1 C 8,9 C 8,3 C 74 % 1028,3 hPa 0,0 l/m 0 min 0 min 70 W/m 16,1 km/h (3 Bft) 100,00 %
26.03.2019 17:42 9,1 C 8,9 C 8,3 C 74 % 1028,4 hPa 0,0 l/m 0 min 0 min 59 W/m 12,9 km/h (3 Bft) 100,00 %
26.03.2019 17:44 9,1 C 8,9 C 8,3 C 74 % 1028,4 hPa 0,0 l/m 0 min 0 min 51 W/m 16,1 km/h (3 Bft) 95,74 %
26.03.2019 17:46 9,1 C 8,9 C 8,3 C 74 % 1028,4 hPa 0,0 l/m 0 min 0 min 45 W/m 12,9 km/h (3 Bft) 96,30 %
26.03.2019 17:48 9,1 C 8,3 C 8,3 C 74 % 1028,4 hPa 0,0 l/m 0 min 0 min 34 W/m 9,7 km/h (2 Bft) 98,00 %
26.03.2019 17:50 9,1 C 8,3 C 8,3 C 74 % 1028,5 hPa 0,0 l/m 0 min 0 min 28 W/m 12,9 km/h (3 Bft) 97,92 %
26.03.2019 17:52 9,1 C 8,3 C 7,8 C 74 % 1028,4 hPa 0,0 l/m 0 min 0 min 25 W/m 6,4 km/h (2 Bft) 100,00 %
26.03.2019 17:54 9,0 C 8,3 C 7,8 C 74 % 1028,4 hPa 0,0 l/m 0 min 0 min 27 W/m 9,7 km/h (2 Bft) 95,74 %
26.03.2019 17:56 9,0 C 8,3 C 7,8 C 74 % 1028,4 hPa 0,0 l/m 0 min 0 min 27 W/m 9,7 km/h (2 Bft) 100,00 %
26.03.2019 17:58 9,0 C 8,3 C 7,8 C 74 % 1028,4 hPa 0,0 l/m 0 min 0 min 25 W/m 9,7 km/h (2 Bft) 100,00 %
26.03.2019 18:00 9,0 C 8,3 C 7,8 C 74 % 1028,4 hPa 0,0 l/m 0 min 0 min 23 W/m 9,7 km/h (2 Bft) 100,00 %
26.03.2019 18:02 8,9 C 8,3 C 7,8 C 74 % 1028,4 hPa 0,0 l/m 0 min 0 min 21 W/m 6,4 km/h (2 Bft) 100,00 %
26.03.2019 18:04 8,9 C 8,3 C 7,8 C 74 % 1028,4 hPa 0,0 l/m 0 min 0 min 21 W/m 6,4 km/h (2 Bft) 97,92 %
26.03.2019 18:08 8,9 C 8,3 C 7,8 C 74 % 1028,5 hPa 0,0 l/m 0 min 0 min 19 W/m 9,7 km/h (2 Bft) 98,92 %
26.03.2019 18:10 8,9 C 8,3 C 7,8 C 74 % 1028,4 hPa 0,0 l/m 0 min 0 min 18 W/m 6,4 km/h (2 Bft) 100,00 %
26.03.2019 18:12 8,9 C 8,3 C 7,8 C 75 % 1028,4 hPa 0,0 l/m 0 min 0 min 17 W/m 9,7 km/h (2 Bft) 100,00 %
26.03.2019 18:14 8,9 C 7,8 C 7,8 C 75 % 1028,4 hPa 0,0 l/m 0 min 0 min 13 W/m 6,4 km/h (2 Bft) 100,00 %
26.03.2019 18:16 8,9 C 7,8 C 7,8 C 75 % 1028,4 hPa 0,0 l/m 0 min 0 min 10 W/m 6,4 km/h (2 Bft) 100,00 %
26.03.2019 18:18 8,8 C 7,8 C 7,8 C 75 % 1028,4 hPa 0,0 l/m 0 min 0 min 7 W/m 3,2 km/h (1 Bft) 100,00 %
26.03.2019 18:20 8,8 C 7,8 C 7,8 C 75 % 1028,4 hPa 0,0 l/m 0 min 0 min 7 W/m 6,4 km/h (2 Bft) 100,00 %
26.03.2019 18:22 8,8 C 7,8 C 7,8 C 75 % 1028,4 hPa 0,0 l/m 0 min 0 min 5 W/m 6,4 km/h (2 Bft) 97,87 %
26.03.2019 18:24 8,8 C 7,8 C 7,2 C 75 % 1028,5 hPa 0,0 l/m 0 min 0 min 5 W/m 0,0 km/h (0 Bft) 97,87 %
26.03.2019 18:26 8,8 C 7,8 C 7,2 C 75 % 1028,5 hPa 0,0 l/m 0 min 0 min 5 W/m 6,4 km/h (2 Bft) 97,87 %
26.03.2019 18:28 8,8 C 7,8 C 7,2 C 75 % 1028,4 hPa 0,0 l/m 0 min 0 min 5 W/m 3,2 km/h (1 Bft) 97,14 %
26.03.2019 18:30 8,8 C 7,8 C 7,2 C 76 % 1028,4 hPa 0,0 l/m 0 min 0 min 5 W/m 3,2 km/h (1 Bft) 98,15 %
26.03.2019 18:32 8,7 C 7,8 C 7,2 C 76 % 1028,5 hPa 0,0 l/m 0 min 0 min 5 W/m 0,0 km/h (0 Bft) 97,87 %
26.03.2019 18:34 8,7 C 7,8 C 7,2 C 76 % 1028,5 hPa 0,0 l/m 0 min 0 min 2 W/m 0,0 km/h (0 Bft) 98,00 %
26.03.2019 18:36 8,7 C 7,8 C 7,2 C 76 % 1028,5 hPa 0,0 l/m 0 min 0 min 0 W/m 0,0 km/h (0 Bft) 95,74 %
26.03.2019 18:38 8,7 C 7,8 C 7,2 C 76 % 1028,5 hPa 0,0 l/m 0 min 0 min 0 W/m 0,0 km/h (0 Bft) 97,83 %
26.03.2019 18:40 8,7 C 7,8 C 7,2 C 76 % 1028,5 hPa 0,0 l/m 0 min 0 min 0 W/m 0,0 km/h (0 Bft) 97,87 %
26.03.2019 18:42 8,7 C 7,8 C 7,2 C 76 % 1028,5 hPa 0,0 l/m 0 min 0 min 0 W/m 0,0 km/h (0 Bft) 97,92 %
26.03.2019 18:44 8,7 C 7,8 C 7,2 C 76 % 1028,4 hPa 0,0 l/m 0 min 0 min 0 W/m 3,2 km/h (1 Bft) 94,29 %
26.03.2019 18:46 8,7 C 7,8 C 7,2 C 76 % 1028,4 hPa 0,0 l/m 0 min 0 min 0 W/m 0,0 km/h (0 Bft) 98,18 %
26.03.2019 18:48 8,6 C 7,8 C 7,2 C 76 % 1028,4 hPa 0,0 l/m 0 min 0 min 0 W/m 3,2 km/h (1 Bft) 98,00 %
26.03.2019 18:50 8,6 C 7,2 C 7,2 C 76 % 1028,4 hPa 0,0 l/m 0 min 0 min 0 W/m 0,0 km/h (0 Bft) 97,92 %
26.03.2019 18:52 8,6 C 7,2 C 7,2 C 76 % 1028,4 hPa 0,0 l/m 0 min 0 min 0 W/m 6,4 km/h (2 Bft) 97,14 %
26.03.2019 18:54 8,6 C 7,2 C 7,2 C 77 % 1028,4 hPa 0,0 l/m 0 min 0 min 0 W/m 0,0 km/h (0 Bft) 98,15 %
26.03.2019 18:56 8,6 C 7,2 C 6,7 C 77 % 1028,5 hPa 0,0 l/m 0 min 0 min 0 W/m 0,0 km/h (0 Bft) 94,00 %
26.03.2019 18:58 8,6 C 7,2 C 7,2 C 77 % 1028,4 hPa 0,0 l/m 0 min 0 min 0 W/m 6,4 km/h (2 Bft) 93,62 %
26.03.2019 19:00 8,5 C 7,2 C 7,2 C 77 % 1028,4 hPa 0,0 l/m 0 min 0 min 0 W/m 3,2 km/h (1 Bft) 95,83 %
26.03.2019 19:02 8,5 C 7,2 C 7,2 C 77 % 1028,4 hPa 0,0 l/m 0 min 0 min 0 W/m 0,0 km/h (0 Bft) 97,87 %
26.03.2019 19:04 8,5 C 7,2 C 7,2 C 77 % 1028,4 hPa 0,0 l/m 0 min 0 min 0 W/m 6,4 km/h (2 Bft) 97,83 %
26.03.2019 19:06 8,4 C 7,2 C 7,2 C 77 % 1028,4 hPa 0,0 l/m 0 min 0 min 0 W/m 3,2 km/h (1 Bft) 97,87 %
26.03.2019 19:08 8,4 C 7,2 C 7,2 C 77 % 1028,4 hPa 0,0 l/m 0 min 0 min 0 W/m 3,2 km/h (1 Bft) 95,74 %
26.03.2019 19:10 8,4 C 7,2 C 7,2 C 77 % 1028,5 hPa 0,0 l/m 0 min 0 min 0 W/m 3,2 km/h (1 Bft) 97,87 %
26.03.2019 19:12 8,4 C 7,2 C 7,2 C 77 % 1028,6 hPa 0,0 l/m 0 min 0 min 0 W/m 3,2 km/h (1 Bft) 97,87 %
26.03.2019 19:14 8,4 C 7,2 C 7,2 C 77 % 1028,6 hPa 0,0 l/m 0 min 0 min 0 W/m 3,2 km/h (1 Bft) 97,14 %
26.03.2019 19:16 8,3 C 7,2 C 7,2 C 77 % 1028,6 hPa 0,0 l/m 0 min 0 min 0 W/m 3,2 km/h (1 Bft) 96,30 %
26.03.2019 19:18 8,3 C 7,2 C 7,2 C 77 % 1028,6 hPa 0,0 l/m 0 min 0 min 0 W/m 3,2 km/h (1 Bft) 96,00 %
26.03.2019 19:20 8,3 C 7,2 C 6,7 C 77 % 1028,5 hPa 0,0 l/m 0 min 0 min 0 W/m 3,2 km/h (1 Bft) 97,92 %
26.03.2019 19:22 8,3 C 7,2 C 6,7 C 77 % 1028,5 hPa 0,0 l/m 0 min 0 min 0 W/m 3,2 km/h (1 Bft) 97,14 %
26.03.2019 19:24 8,3 C 7,2 C 6,7 C 77 % 1028,6 hPa 0,0 l/m 0 min 0 min 0 W/m 3,2 km/h (1 Bft) 95,74 %
26.03.2019 19:26 8,3 C 7,2 C 6,7 C 77 % 1028,6 hPa 0,0 l/m 0 min 0 min 0 W/m 0,0 km/h (0 Bft) 97,87 %
26.03.2019 19:28 8,2 C 7,2 C 6,7 C 77 % 1028,7 hPa 0,0 l/m 0 min 0 min 0 W/m 6,4 km/h (2 Bft) 98,15 %
26.03.2019 19:30 8,2 C 7,2 C 6,7 C 77 % 1028,7 hPa 0,0 l/m 0 min 0 min 0 W/m 3,2 km/h (1 Bft) 97,87 %
26.03.2019 19:32 8,2 C 7,2 C 6,7 C 77 % 1028,8 hPa 0,0 l/m 0 min 0 min 0 W/m 6,4 km/h (2 Bft) 98,00 %
26.03.2019 19:34 8,2 C 7,2 C 6,7 C 78 % 1028,7 hPa 0,0 l/m 0 min 0 min 0 W/m 3,2 km/h (1 Bft) 95,74 %
26.03.2019 19:36 8,2 C 7,2 C 6,7 C 78 % 1028,8 hPa 0,0 l/m 0 min 0 min 0 W/m 0,0 km/h (0 Bft) 97,92 %
26.03.2019 19:38 8,2 C 7,2 C 6,7 C 78 % 1028,7 hPa 0,0 l/m 0 min 0 min 0 W/m 0,0 km/h (0 Bft) 97,87 %
26.03.2019 19:40 8,2 C 7,2 C 6,7 C 78 % 1028,8 hPa 0,0 l/m 0 min 0 min 0 W/m 0,0 km/h (0 Bft) 95,65 %
26.03.2019 19:42 8,2 C 7,2 C 6,7 C 78 % 1028,8 hPa 0,0 l/m 0 min 0 min 0 W/m 3,2 km/h (1 Bft) 97,87 %
26.03.2019 19:44 8,1 C 7,2 C 6,7 C 78 % 1028,8 hPa 0,0 l/m 0 min 0 min 0 W/m 0,0 km/h (0 Bft) 97,14 %
26.03.2019 19:46 8,1 C 7,2 C 6,7 C 78 % 1028,8 hPa 0,0 l/m 0 min 0 min 0 W/m 0,0 km/h (0 Bft) 97,87 %
26.03.2019 19:48 8,1 C 7,2 C 6,7 C 78 % 1028,8 hPa 0,0 l/m 0 min 0 min 0 W/m 0,0 km/h (0 Bft) 96,36 %
26.03.2019 19:50 8,1 C 7,2 C 6,7 C 78 % 1028,8 hPa 0,0 l/m 0 min 0 min 0 W/m 0,0 km/h (0 Bft) 97,83 %
26.03.2019 19:52 8,1 C 7,2 C 6,7 C 78 % 1028,8 hPa 0,0 l/m 0 min 0 min 0 W/m 0,0 km/h (0 Bft) 97,87 %
26.03.2019 19:54 8,1 C 7,2 C 6,7 C 78 % 1028,9 hPa 0,0 l/m 0 min 0 min 0 W/m 0,0 km/h (0 Bft) 97,87 %
26.03.2019 19:56 8,1 C 7,2 C 6,7 C 78 % 1028,8 hPa 0,0 l/m 0 min 0 min 0 W/m 0,0 km/h (0 Bft) 98,00 %
26.03.2019 19:58 8,1 C 7,2 C 6,7 C 78 % 1028,8 hPa 0,0 l/m 0 min 0 min 0 W/m 0,0 km/h (0 Bft) 97,87 %
26.03.2019 20:00 8,1 C 7,2 C 6,7 C 78 % 1028,8 hPa 0,0 l/m 0 min 0 min 0 W/m 0,0 km/h (0 Bft) 100,00 %
26.03.2019 20:02 8,0 C 7,2 C 6,7 C 78 % 1028,9 hPa 0,0 l/m 0 min 0 min 0 W/m 0,0 km/h (0 Bft) 100,00 %
26.03.2019 20:04 8,0 C 7,2 C 6,7 C 78 % 1028,9 hPa 0,0 l/m 0 min 0 min 0 W/m 3,2 km/h (1 Bft) 100,00 %
26.03.2019 20:06 8,0 C 7,2 C 6,7 C 78 % 1028,9 hPa 0,0 l/m 0 min 0 min 0 W/m 3,2 km/h (1 Bft) 100,00 %
26.03.2019 20:08 8,0 C 7,2 C 6,7 C 78 % 1028,9 hPa 0,0 l/m 0 min 0 min 0 W/m 0,0 km/h (0 Bft) 97,14 %
26.03.2019 20:10 7,9 C 7,2 C 6,7 C 78 % 1029,0 hPa 0,0 l/m 0 min 0 min 0 W/m 0,0 km/h (0 Bft) 100,00 %
26.03.2019 20:12 7,9 C 7,2 C 6,7 C 78 % 1028,9 hPa 0,0 l/m 0 min 0 min 0 W/m 3,2 km/h (1 Bft) 100,00 %
26.03.2019 20:14 7,9 C 7,2 C 6,7 C 78 % 1028,9 hPa 0,0 l/m 0 min 0 min 0 W/m 3,2 km/h (1 Bft) 100,00 %
26.03.2019 20:16 7,9 C 7,2 C 6,7 C 78 % 1028,9 hPa 0,0 l/m 0 min 0 min 0 W/m 0,0 km/h (0 Bft) 100,00 %
26.03.2019 20:18 7,9 C 7,2 C 6,7 C 78 % 1028,9 hPa 0,0 l/m 0 min 0 min 0 W/m 0,0 km/h (0 Bft) 97,83 %
26.03.2019 20:20 7,9 C 7,2 C 6,7 C 78 % 1028,9 hPa 0,0 l/m 0 min 0 min 0 W/m 3,2 km/h (1 Bft) 100,00 %
26.03.2019 20:22 7,9 C 7,2 C 6,7 C 78 % 1029,0 hPa 0,0 l/m 0 min 0 min 0 W/m 3,2 km/h (1 Bft) 100,00 %
26.03.2019 20:24 7,8 C 7,2 C 6,7 C 78 % 1029,0 hPa 0,0 l/m 0 min 0 min 0 W/m 3,2 km/h (1 Bft) 100,00 %
26.03.2019 20:26 7,8 C 7,2 C 6,7 C 78 % 1029,0 hPa 0,0 l/m 0 min 0 min 0 W/m 3,2 km/h (1 Bft) 100,00 %
26.03.2019 20:28 7,8 C 7,2 C 6,7 C 78 % 1029,0 hPa 0,0 l/m 0 min 0 min 0 W/m 3,2 km/h (1 Bft) 100,00 %
26.03.2019 20:30 7,8 C 7,2 C 6,7 C 79 % 1029,0 hPa 0,0 l/m 0 min 0 min 0 W/m 0,0 km/h (0 Bft) 100,00 %
26.03.2019 20:32 7,8 C 7,2 C 6,7 C 79 % 1029,0 hPa 0,0 l/m 0 min 0 min 0 W/m 3,2 km/h (1 Bft) 97,87 %
26.03.2019 20:34 7,8 C 7,2 C 6,7 C 79 % 1029,0 hPa 0,0 l/m 0 min 0 min 0 W/m 3,2 km/h (1 Bft) 100,00 %
26.03.2019 20:36 7,8 C 7,2 C 6,7 C 79 % 1029,0 hPa 0,0 l/m 0 min 0 min 0 W/m 3,2 km/h (1 Bft) 100,00 %
26.03.2019 20:38 7,8 C 7,2 C 6,7 C 79 % 1029,0 hPa 0,0 l/m 0 min 0 min 0 W/m 0,0 km/h (0 Bft) 100,00 %
26.03.2019 20:40 7,8 C 7,2 C 6,7 C 79 % 1029,0 hPa 0,0 l/m 0 min 0 min 0 W/m 0,0 km/h (0 Bft) 100,00 %
26.03.2019 20:42 7,8 C 7,2 C 6,7 C 79 % 1029,1 hPa 0,0 l/m 0 min 0 min 0 W/m 0,0 km/h (0 Bft) 95,74 %
26.03.2019 20:44 7,8 C 7,2 C 6,7 C 79 % 1029,1 hPa 0,0 l/m 0 min 0 min 0 W/m 0,0 km/h (0 Bft) 97,87 %
26.03.2019 20:46 7,8 C 7,2 C 6,7 C 79 % 1029,1 hPa 0,0 l/m 0 min 0 min 0 W/m 0,0 km/h (0 Bft) 98,18 %
26.03.2019 20:48 7,8 C 7,2 C 6,7 C 79 % 1029,2 hPa 0,0 l/m 0 min 0 min 0 W/m 0,0 km/h (0 Bft) 97,83 %
26.03.2019 20:50 7,8 C 6,7 C 6,1 C 79 % 1029,2 hPa 0,0 l/m 0 min 0 min 0 W/m 0,0 km/h (0 Bft) 97,87 %
26.03.2019 20:52 7,8 C 6,7 C 6,1 C 79 % 1029,2 hPa 0,0 l/m 0 min 0 min 0 W/m 0,0 km/h (0 Bft) 97,87 %
26.03.2019 20:54 7,8 C 6,7 C 6,1 C 79 % 1029,2 hPa 0,0 l/m 0 min 0 min 0 W/m 0,0 km/h (0 Bft) 97,87 %
26.03.2019 20:56 7,7 C 6,7 C 6,1 C 79 % 1029,3 hPa 0,0 l/m 0 min 0 min 0 W/m 0,0 km/h (0 Bft) 97,87 %
26.03.2019 20:58 7,7 C 6,7 C 6,1 C 79 % 1029,3 hPa 0,0 l/m 0 min 0 min 0 W/m 0,0 km/h (0 Bft) 97,87 %
26.03.2019 21:00 7,7 C 6,7 C 6,1 C 79 % 1029,4 hPa 0,0 l/m 0 min 0 min 0 W/m 0,0 km/h (0 Bft) 97,83 %
26.03.2019 21:02 7,7 C 6,7 C 6,1 C 79 % 1029,4 hPa 0,0 l/m 0 min 0 min 0 W/m 0,0 km/h (0 Bft) 95,74 %
26.03.2019 21:04 7,7 C 6,7 C 6,1 C 79 % 1029,3 hPa 0,0 l/m 0 min 0 min 0 W/m 0,0 km/h (0 Bft) 95,74 %
26.03.2019 21:06 7,7 C 6,7 C 6,1 C 79 % 1029,3 hPa 0,0 l/m 0 min 0 min 0 W/m 0,0 km/h (0 Bft) 97,87 %
26.03.2019 21:08 7,7 C 6,7 C 6,1 C 79 % 1029,4 hPa 0,0 l/m 0 min 0 min 0 W/m 0,0 km/h (0 Bft) 95,74 %
26.03.2019 21:10 7,7 C 6,7 C 6,1 C 79 % 1029,4 hPa 0,0 l/m 0 min 0 min 0 W/m 3,2 km/h (1 Bft) 97,87 %
26.03.2019 21:12 7,7 C 6,7 C 6,1 C 79 % 1029,4 hPa 0,0 l/m 0 min 0 min 0 W/m 3,2 km/h (1 Bft) 97,83 %
26.03.2019 21:14 7,7 C 6,7 C 6,1 C 79 % 1029,4 hPa 0,0 l/m 0 min 0 min 0 W/m 0,0 km/h (0 Bft) 95,74 %
26.03.2019 21:16 7,7 C 6,7 C 6,1 C 79 % 1029,4 hPa 0,0 l/m 0 min 0 min 0 W/m 0,0 km/h (0 Bft) 97,87 %
26.03.2019 21:18 7,6 C 6,7 C 6,1 C 79 % 1029,4 hPa 0,0 l/m 0 min 0 min 0 W/m 0,0 km/h (0 Bft) 97,87 %
26.03.2019 21:20 7,6 C 6,7 C 6,1 C 79 % 1029,4 hPa 0,0 l/m 0 min 0 min 0 W/m 0,0 km/h (0 Bft) 95,74 %
26.03.2019 21:22 7,6 C 6,7 C 6,1 C 80 % 1029,4 hPa 0,0 l/m 0 min 0 min 0 W/m 0,0 km/h (0 Bft) 95,74 %
26.03.2019 21:24 7,6 C 6,7 C 6,1 C 80 % 1029,4 hPa 0,0 l/m 0 min 0 min 0 W/m 0,0 km/h (0 Bft) 93,48 %
26.03.2019 21:26 7,6 C 6,7 C 6,1 C 79 % 1029,4 hPa 0,0 l/m 0 min 0 min 0 W/m 0,0 km/h (0 Bft) 93,62 %
26.03.2019 21:28 7,6 C 6,7 C 6,1 C 79 % 1029,4 hPa 0,0 l/m 0 min 0 min 0 W/m 0,0 km/h (0 Bft) 95,74 %
26.03.2019 21:30 7,6 C 6,7 C 6,1 C 80 % 1029,4 hPa 0,0 l/m 0 min 0 min 0 W/m 0,0 km/h (0 Bft) 95,74 %
26.03.2019 21:32 7,6 C 6,7 C 6,1 C 80 % 1029,4 hPa 0,0 l/m 0 min 0 min 0 W/m 0,0 km/h (0 Bft) 91,49 %
26.03.2019 21:34 7,6 C 6,7 C 6,1 C 80 % 1029,4 hPa 0,0 l/m 0 min 0 min 0 W/m 0,0 km/h (0 Bft) 93,62 %
26.03.2019 21:36 7,5 C 6,7 C 6,1 C 80 % 1029,4 hPa 0,0 l/m 0 min 0 min 0 W/m 0,0 km/h (0 Bft) 93,48 %
26.03.2019 21:38 7,5 C 6,7 C 5,6 C 80 % 1029,4 hPa 0,0 l/m 0 min 0 min 0 W/m 0,0 km/h (0 Bft) 95,74 %
26.03.2019 21:40 7,5 C 6,7 C 6,1 C 80 % 1029,5 hPa 0,0 l/m 0 min 0 min 0 W/m 0,0 km/h (0 Bft) 95,74 %
26.03.2019 21:42 7,5 C 6,7 C 6,1 C 80 % 1029,4 hPa 0,0 l/m 0 min 0 min 0 W/m 0,0 km/h (0 Bft) 93,62 %
26.03.2019 21:44 7,5 C 6,7 C 5,6 C 80 % 1029,4 hPa 0,0 l/m 0 min 0 min 0 W/m 0,0 km/h (0 Bft) 93,62 %
26.03.2019 21:46 7,4 C 6,7 C 6,1 C 80 % 1029,5 hPa 0,0 l/m 0 min 0 min 0 W/m 0,0 km/h (0 Bft) 93,48 %
26.03.2019 21:48 7,4 C 6,7 C 6,1 C 80 % 1029,4 hPa 0,0 l/m 0 min 0 min 0 W/m 0,0 km/h (0 Bft) 91,49 %
26.03.2019 21:50 7,4 C 6,7 C 6,1 C 80 % 1029,4 hPa 0,0 l/m 0 min 0 min 0 W/m 0,0 km/h (0 Bft) 95,74 %
26.03.2019 21:52 7,4 C 6,7 C 6,1 C 81 % 1029,5 hPa 0,0 l/m 0 min 0 min 0 W/m 0,0 km/h (0 Bft) 93,62 %
26.03.2019 21:54 7,4 C 6,7 C 6,1 C 81 % 1029,5 hPa 0,0 l/m 0 min 0 min 0 W/m 0,0 km/h (0 Bft) 95,74 %
26.03.2019 21:56 7,4 C 6,7 C 6,1 C 81 % 1029,5 hPa 0,0 l/m 0 min 0 min 0 W/m 0,0 km/h (0 Bft) 95,74 %
26.03.2019 21:58 7,4 C 6,7 C 6,1 C 81 % 1029,4 hPa 0,0 l/m 0 min 0 min 0 W/m 0,0 km/h (0 Bft) 93,48 %
26.03.2019 22:00 7,4 C 6,7 C 5,6 C 81 % 1029,5 hPa 0,0 l/m 0 min 0 min 0 W/m 0,0 km/h (0 Bft) 95,74 %
26.03.2019 22:02 7,4 C 6,7 C 5,6 C 81 % 1029,4 hPa 0,0 l/m 0 min 0 min 0 W/m 0,0 km/h (0 Bft) 95,74 %
26.03.2019 22:04 7,4 C 6,7 C 5,6 C 81 % 1029,4 hPa 0,0 l/m 0 min 0 min 0 W/m 0,0 km/h (0 Bft) 93,62 %
26.03.2019 22:06 7,4 C 6,7 C 5,6 C 81 % 1029,4 hPa 0,0 l/m 0 min 0 min 0 W/m 0,0 km/h (0 Bft) 92,00 %
26.03.2019 22:08 7,3 C 6,7 C 5,6 C 81 % 1029,5 hPa 0,0 l/m 0 min 0 min 0 W/m 0,0 km/h (0 Bft) 97,83 %
26.03.2019 22:10 7,4 C 6,7 C 5,6 C 81 % 1029,5 hPa 0,0 l/m 0 min 0 min 0 W/m 0,0 km/h (0 Bft) 97,87 %
26.03.2019 22:12 7,3 C 6,7 C 5,6 C 81 % 1029,5 hPa 0,0 l/m 0 min 0 min 0 W/m 0,0 km/h (0 Bft) 97,87 %
26.03.2019 22:14 7,3 C 6,7 C 5,6 C 81 % 1029,4 hPa 0,0 l/m 0 min 0 min 0 W/m 0,0 km/h (0 Bft) 97,87 %
26.03.2019 22:16 7,3 C 6,7 C 5,6 C 81 % 1029,5 hPa 0,0 l/m 0 min 0 min 0 W/m 0,0 km/h (0 Bft) 97,87 %
26.03.2019 22:18 7,3 C 6,7 C 5,6 C 81 % 1029,5 hPa 0,0 l/m 0 min 0 min 0 W/m 0,0 km/h (0 Bft) 97,87 %
26.03.2019 22:20 7,3 C 6,7 C 5,6 C 81 % 1029,4 hPa 0,0 l/m 0 min 0 min 0 W/m 0,0 km/h (0 Bft) 97,87 %
26.03.2019 22:22 7,3 C 6,7 C 5,6 C 81 % 1029,4 hPa 0,0 l/m 0 min 0 min 0 W/m 0,0 km/h (0 Bft) 97,83 %
26.03.2019 22:24 7,3 C 6,7 C 5,6 C 81 % 1029,5 hPa 0,0 l/m 0 min 0 min 0 W/m 0,0 km/h (0 Bft) 97,87 %
26.03.2019 22:26 7,3 C 6,7 C 5,6 C 81 % 1029,5 hPa 0,0 l/m 0 min 0 min 0 W/m 0,0 km/h (0 Bft) 100,00 %
26.03.2019 22:28 7,3 C 6,1 C 5,6 C 82 % 1029,5 hPa 0,0 l/m 0 min 0 min 0 W/m 0,0 km/h (0 Bft) 100,00 %
26.03.2019 22:30 7,3 C 6,1 C 5,6 C 82 % 1029,5 hPa 0,0 l/m 0 min 0 min 0 W/m 0,0 km/h (0 Bft) 100,00 %
26.03.2019 22:32 7,3 C 6,1 C 5,6 C 82 % 1029,6 hPa 0,0 l/m 0 min 0 min 0 W/m 0,0 km/h (0 Bft) 100,00 %
26.03.2019 22:34 7,3 C 6,1 C 5,6 C 82 % 1029,5 hPa 0,0 l/m 0 min 0 min 0 W/m 0,0 km/h (0 Bft) 100,00 %
26.03.2019 22:36 7,2 C 6,1 C 5,6 C 82 % 1029,5 hPa 0,0 l/m 0 min 0 min 0 W/m 0,0 km/h (0 Bft) 100,00 %
26.03.2019 22:38 7,2 C 6,7 C 5,6 C 82 % 1029,5 hPa 0,0 l/m 0 min 0 min 0 W/m 0,0 km/h (0 Bft) 100,00 %
26.03.2019 22:40 7,2 C 6,7 C 5,6 C 82 % 1029,6 hPa 0,0 l/m 0 min 0 min 0 W/m 3,2 km/h (1 Bft) 97,87 %
26.03.2019 22:42 7,2 C 6,7 C 5,6 C 82 % 1029,6 hPa 0,0 l/m 0 min 0 min 0 W/m 3,2 km/h (1 Bft) 97,87 %
26.03.2019 22:44 7,2 C 6,1 C 5,6 C 82 % 1029,6 hPa 0,0 l/m 0 min 0 min 0 W/m 0,0 km/h (0 Bft) 100,00 %
26.03.2019 22:46 7,2 C 6,1 C 5,6 C 82 % 1029,6 hPa 0,0 l/m 0 min 0 min 0 W/m 3,2 km/h (1 Bft) 100,00 %
26.03.2019 22:48 7,2 C 6,1 C 5,6 C 82 % 1029,6 hPa 0,0 l/m 0 min 0 min 0 W/m 0,0 km/h (0 Bft) 100,00 %
26.03.2019 22:50 7,2 C 6,1 C 5,6 C 82 % 1029,6 hPa 0,0 l/m 0 min 0 min 0 W/m 0,0 km/h (0 Bft) 100,00 %
26.03.2019 22:52 7,2 C 6,1 C 5,6 C 82 % 1029,7 hPa 0,0 l/m 0 min 0 min 0 W/m 0,0 km/h (0 Bft) 100,00 %
26.03.2019 22:54 7,2 C 6,1 C 5,6 C 82 % 1029,6 hPa 0,0 l/m 0 min 0 min 0 W/m 0,0 km/h (0 Bft) 100,00 %
26.03.2019 22:56 7,2 C 6,1 C 5,6 C 82 % 1029,6 hPa 0,0 l/m 0 min 0 min 0 W/m 0,0 km/h (0 Bft) 100,00 %
26.03.2019 22:58 7,2 C 6,1 C 5,6 C 82 % 1029,7 hPa 0,0 l/m 0 min 0 min 0 W/m 0,0 km/h (0 Bft) 100,00 %
26.03.2019 23:00 7,1 C 6,1 C 5,6 C 82 % 1029,7 hPa 0,0 l/m 0 min 0 min 0 W/m 0,0 km/h (0 Bft) 97,87 %
26.03.2019 23:02 7,1 C 6,1 C 5,6 C 82 % 1029,7 hPa 0,0 l/m 0 min 0 min 0 W/m 6,4 km/h (2 Bft) 97,87 %
26.03.2019 23:04 7,1 C 6,1 C 5,6 C 82 % 1029,6 hPa 0,0 l/m 0 min 0 min 0 W/m 3,2 km/h (1 Bft) 100,00 %
26.03.2019 23:06 7,1 C 6,1 C 5,6 C 82 % 1029,7 hPa 0,0 l/m 0 min 0 min 0 W/m 3,2 km/h (1 Bft) 97,87 %
26.03.2019 23:08 7,1 C 6,1 C 5,6 C 82 % 1029,7 hPa 0,0 l/m 0 min 0 min 0 W/m 0,0 km/h (0 Bft) 100,00 %
26.03.2019 23:10 7,1 C 6,1 C 5,6 C 82 % 1029,7 hPa 0,0 l/m 0 min 0 min 0 W/m 0,0 km/h (0 Bft) 100,00 %
26.03.2019 23:12 7,1 C 6,1 C 5,6 C 82 % 1029,7 hPa 0,0 l/m 0 min 0 min 0 W/m 0,0 km/h (0 Bft) 100,00 %
26.03.2019 23:14 7,1 C 6,1 C 5,6 C 83 % 1029,7 hPa 0,0 l/m 0 min 0 min 0 W/m 0,0 km/h (0 Bft) 100,00 %
26.03.2019 23:16 7,1 C 6,1 C 5,6 C 83 % 1029,7 hPa 0,0 l/m 0 min 0 min 0 W/m 0,0 km/h (0 Bft) 100,00 %
26.03.2019 23:18 7,1 C 6,1 C 5,6 C 83 % 1029,7 hPa 0,0 l/m 0 min 0 min 0 W/m 0,0 km/h (0 Bft) 100,00 %
26.03.2019 23:20 7,1 C 6,1 C 5,6 C 83 % 1029,7 hPa 0,0 l/m 0 min 0 min 0 W/m 0,0 km/h (0 Bft) 100,00 %
26.03.2019 23:22 7,0 C 6,1 C 5,6 C 83 % 1029,7 hPa 0,0 l/m 0 min 0 min 0 W/m 0,0 km/h (0 Bft) 100,00 %
26.03.2019 23:24 7,0 C 6,1 C 5,6 C 83 % 1029,6 hPa 0,0 l/m 0 min 0 min 0 W/m 0,0 km/h (0 Bft) 100,00 %
26.03.2019 23:26 7,0 C 6,1 C 5,6 C 83 % 1029,6 hPa 0,0 l/m 0 min 0 min 0 W/m 0,0 km/h (0 Bft) 100,00 %
26.03.2019 23:28 7,0 C 6,1 C 5,6 C 83 % 1029,5 hPa 0,0 l/m 0 min 0 min 0 W/m 0,0 km/h (0 Bft) 100,00 %
26.03.2019 23:30 7,0 C 6,1 C 5,6 C 83 % 1029,5 hPa 0,0 l/m 0 min 0 min 0 W/m 0,0 km/h (0 Bft) 100,00 %
26.03.2019 23:32 6,9 C 6,1 C 5,6 C 83 % 1029,5 hPa 0,0 l/m 0 min 0 min 0 W/m 0,0 km/h (0 Bft) 100,00 %
26.03.2019 23:34 6,9 C 6,1 C 5,6 C 83 % 1029,5 hPa 0,0 l/m 0 min 0 min 0 W/m 0,0 km/h (0 Bft) 100,00 %
26.03.2019 23:36 6,9 C 6,1 C 5,6 C 83 % 1029,5 hPa 0,0 l/m 0 min 0 min 0 W/m 0,0 km/h (0 Bft) 97,87 %
26.03.2019 23:38 6,9 C 6,1 C 5,6 C 83 % 1029,5 hPa 0,0 l/m 0 min 0 min 0 W/m 0,0 km/h (0 Bft) 100,00 %
26.03.2019 23:40 6,9 C 6,1 C 5,6 C 83 % 1029,5 hPa 0,0 l/m 0 min 0 min 0 W/m 0,0 km/h (0 Bft) 100,00 %
26.03.2019 23:42 6,9 C 6,1 C 5,6 C 83 % 1029,5 hPa 0,0 l/m 0 min 0 min 0 W/m 0,0 km/h (0 Bft) 100,00 %
26.03.2019 23:44 6,9 C 6,1 C 5,6 C 83 % 1029,5 hPa 0,0 l/m 0 min 0 min 0 W/m 0,0 km/h (0 Bft) 100,00 %
26.03.2019 23:46 6,9 C 6,1 C 5,6 C 83 % 1029,5 hPa 0,0 l/m 0 min 0 min 0 W/m 0,0 km/h (0 Bft) 100,00 %
26.03.2019 23:48 6,9 C 6,1 C 5,6 C 83 % 1029,5 hPa 0,0 l/m 0 min 0 min 0 W/m 0,0 km/h (0 Bft) 97,87 %
26.03.2019 23:50 6,9 C 6,1 C 5,6 C 83 % 1029,5 hPa 0,0 l/m 0 min 0 min 0 W/m 0,0 km/h (0 Bft) 97,87 %
26.03.2019 23:52 6,9 C 6,1 C 5,6 C 83 % 1029,5 hPa 0,0 l/m 0 min 0 min 0 W/m 0,0 km/h (0 Bft) 97,87 %
26.03.2019 23:54 6,9 C 6,1 C 5,6 C 83 % 1029,5 hPa 0,0 l/m 0 min 0 min 0 W/m 0,0 km/h (0 Bft) 100,00 %
26.03.2019 23:56 6,9 C 6,1 C 5,6 C 83 % 1029,4 hPa 0,0 l/m 0 min 0 min 0 W/m 0,0 km/h (0 Bft) 100,00 %
26.03.2019 23:58 6,9 C 6,1 C 5,6 C 83 % 1029,4 hPa 0,0 l/m 0 min 0 min 0 W/m 0,0 km/h (0 Bft) 97,87 %
_ Min-Zeit 06:24 05:32 01:58 12:30 00:08 - - - - 06:54 11:22
Minimum _ 5,2 C 4,4 C 4,4 C 66 % 1027,9 hPa - - - - 0,0 km/h (0 Bft) 86,00 %
_ Max-Zeit 12:24 12:08 12:22 06:08 10:48 00:00 12:08 08:48 12:16 00:22 00:22
Maximum _ 11,1 C 18,3 C 12,2 C 86 % 1029,8 hPa 0,0 l/m 4 min 2 min 830 W/m 38,6 km/h
NW (5 Bft)
100,00 %
Durchschnitt _ 7,4 C 7,4 C 6,7 C 79 % 1028,9 hPa #0,0 l/m #2:12 h #10 min. 165 W/m 10,1 km/h (2 Bft) 97,50 %
© 2019 W. Hausmann